Time,TemperatureF,DewpointF,PressureIn,WindDirection,WindDirectionDegrees,WindSpeedMPH,WindSpeedGustMPH,Humidity,HourlyPrecipIn,Conditions,Clouds,dailyrainin,SoftwareType,DateUTC
2013-06-28 00:01:00,74.0,46.8,29.78,South,179,0.0,0.0,38,0.00,RA,,0.00,WeatherDisplay:10.37,2013-06-28 04:01:00,
2013-06-28 00:06:00,73.7,47.9,29.78,South,179,0.0,0.0,40,0.00,RA,,0.00,WeatherDisplay:10.37,2013-06-28 04:06:00,
2013-06-28 00:11:00,73.4,48.9,29.78,South,179,0.0,0.0,42,0.00,CLR,,0.00,WeatherDisplay:10.37,2013-06-28 04:11:00,
2013-06-28 00:12:00,73.4,48.9,29.78,South,179,0.0,0.0,42,0.00,CLR,,0.00,WeatherDisplay:10.37,2013-06-28 04:12:00,
2013-06-28 00:16:00,73.5,49.0,29.78,South,179,0.0,0.0,42,0.00,CLR,,0.00,WeatherDisplay:10.37,2013-06-28 04:16:00,
2013-06-28 00:17:00,73.4,48.9,29.78,South,179,0.0,0.0,42,0.00,CLR,,0.00,WeatherDisplay:10.37,2013-06-28 04:17:00,
2013-06-28 00:21:00,73.2,49.4,29.78,South,179,0.0,0.0,43,0.00,CLR,,0.00,WeatherDisplay:10.37,2013-06-28 04:21:00,
2013-06-28 00:22:00,73.0,49.2,29.78,South,179,0.0,0.0,43,0.00,CLR,,0.00,WeatherDisplay:10.37,2013-06-28 04:22:00,
2013-06-28 00:26:00,72.9,49.7,29.78,South,179,0.0,0.0,44,0.00,CLR,,0.00,WeatherDisplay:10.37,2013-06-28 04:26:00,
2013-06-28 00:27:00,73.1,49.9,29.78,South,179,0.0,0.0,44,0.00,CLR,,0.00,WeatherDisplay:10.37,2013-06-28 04:27:00,
2013-06-28 00:31:00,73.2,49.4,29.78,South,179,0.0,0.0,43,0.00,CLR,,0.00,WeatherDisplay:10.37,2013-06-28 04:31:00,
2013-06-28 00:32:00,73.1,49.3,29.78,South,179,0.0,0.0,43,0.00,CLR,,0.00,WeatherDisplay:10.37,2013-06-28 04:32:00,
2013-06-28 00:36:00,73.2,47.4,29.78,South,179,0.0,0.0,40,0.00,CLR,,0.00,WeatherDisplay:10.37,2013-06-28 04:36:00,
2013-06-28 00:37:00,73.1,47.3,29.78,South,179,0.0,0.0,40,0.00,CLR,,0.00,WeatherDisplay:10.37,2013-06-28 04:37:00,
2013-06-28 00:42:00,73.1,46.7,29.78,South,179,0.0,0.0,39,0.00,CLR,,0.00,WeatherDisplay:10.37,2013-06-28 04:42:00,
2013-06-28 00:43:00,73.1,46.0,29.78,South,179,0.0,0.0,38,0.00,CLR,,0.00,WeatherDisplay:10.37,2013-06-28 04:43:00,
2013-06-28 00:47:00,73.1,41.5,29.78,South,179,0.0,0.0,32,0.00,CLR,,0.00,WeatherDisplay:10.37,2013-06-28 04:47:00,
2013-06-28 00:48:00,73.1,43.1,29.78,South,179,0.0,0.0,34,0.00,CLR,,0.00,WeatherDisplay:10.37,2013-06-28 04:48:00,
2013-06-28 00:52:00,73.5,41.8,29.78,South,179,0.0,0.0,32,0.00,CLR,,0.00,WeatherDisplay:10.37,2013-06-28 04:52:00,
2013-06-28 00:53:00,73.5,41.8,29.78,South,179,0.0,0.0,32,0.00,CLR,,0.00,WeatherDisplay:10.37,2013-06-28 04:53:00,
2013-06-28 00:57:00,73.3,46.2,29.78,South,179,0.0,0.0,38,0.00,CLR,,0.00,WeatherDisplay:10.37,2013-06-28 04:57:00,
2013-06-28 00:58:00,73.2,46.1,29.78,South,179,0.0,0.0,38,0.00,CLR,,0.00,WeatherDisplay:10.37,2013-06-28 04:58:00,
2013-06-28 01:03:00,73.1,47.3,29.78,South,179,0.0,0.0,40,0.00,CLR,,0.00,WeatherDisplay:10.37,2013-06-28 05:03:00,
2013-06-28 01:08:00,72.5,48.1,29.79,South,179,0.0,0.0,42,0.00,CLR,,0.00,WeatherDisplay:10.37,2013-06-28 05:08:00,
2013-06-28 01:09:00,72.3,46.6,29.79,South,179,0.0,0.0,40,0.00,CLR,,0.00,WeatherDisplay:10.37,2013-06-28 05:09:00,
2013-06-28 01:13:00,72.3,49.2,29.79,South,179,0.0,0.0,44,0.00,CLR,,0.00,WeatherDisplay:10.37,2013-06-28 05:13:00,
2013-06-28 01:14:00,72.5,49.3,29.79,South,179,0.0,0.0,44,0.00,CLR,,0.00,WeatherDisplay:10.37,2013-06-28 05:14:00,
2013-06-28 01:18:00,72.0,48.9,29.79,South,179,0.0,0.0,44,0.00,CLR,,0.00,WeatherDisplay:10.37,2013-06-28 05:18:00,
2013-06-28 01:19:00,72.0,48.9,29.79,South,179,0.0,0.0,44,0.00,CLR,,0.00,WeatherDisplay:10.37,2013-06-28 05:19:00,
2013-06-28 01:20:00,72.3,49.8,29.79,South,179,0.0,0.0,45,0.00,CLR,,0.00,WeatherDisplay:10.37,2013-06-28 05:20:00,
2013-06-28 01:23:00,72.1,51.3,29.78,South,179,0.0,0.0,48,0.00,CLR,,0.00,WeatherDisplay:10.37,2013-06-28 05:23:00,
2013-06-28 01:24:00,72.3,51.5,29.78,South,179,0.0,0.0,48,0.00,CLR,,0.00,WeatherDisplay:10.37,2013-06-28 05:24:00,
2013-06-28 01:25:00,72.4,51.6,29.78,South,179,0.0,0.0,48,0.00,CLR,,0.00,WeatherDisplay:10.37,2013-06-28 05:25:00,
2013-06-28 01:26:00,72.2,50.3,29.78,South,179,0.0,0.0,46,0.00,CLR,,0.00,WeatherDisplay:10.37,2013-06-28 05:26:00,
2013-06-28 01:28:00,72.4,51.6,29.78,South,179,0.0,0.0,48,0.00,CLR,,0.00,WeatherDisplay:10.37,2013-06-28 05:28:00,
2013-06-28 01:29:00,72.2,51.4,29.78,South,179,0.0,0.0,48,0.00,CLR,,0.00,WeatherDisplay:10.37,2013-06-28 05:29:00,
2013-06-28 01:30:00,72.4,52.7,29.78,South,179,0.0,0.0,50,0.00,CLR,,0.00,WeatherDisplay:10.37,2013-06-28 05:30:00,
2013-06-28 01:31:00,72.2,51.4,29.78,South,179,0.0,0.0,48,0.00,CLR,,0.00,WeatherDisplay:10.37,2013-06-28 05:31:00,
2013-06-28 01:33:00,72.3,52.1,29.78,South,179,0.0,0.0,49,0.00,CLR,,0.00,WeatherDisplay:10.37,2013-06-28 05:33:00,
2013-06-28 01:34:00,72.0,51.8,29.78,South,179,0.0,0.0,49,0.00,CLR,,0.00,WeatherDisplay:10.37,2013-06-28 05:34:00,
2013-06-28 01:35:00,72.1,51.9,29.77,South,179,0.0,0.0,49,0.00,CLR,,0.00,WeatherDisplay:10.37,2013-06-28 05:35:00,
2013-06-28 01:36:00,72.2,52.5,29.77,South,179,0.0,0.0,50,0.00,CLR,,0.00,WeatherDisplay:10.37,2013-06-28 05:36:00,
2013-06-28 01:38:00,72.2,53.6,29.77,South,179,0.0,0.0,52,0.00,CLR,,0.00,WeatherDisplay:10.37,2013-06-28 05:38:00,
2013-06-28 01:39:00,72.0,53.4,29.77,South,179,0.0,0.0,52,0.00,CLR,,0.00,WeatherDisplay:10.37,2013-06-28 05:39:00,
2013-06-28 01:40:00,72.0,53.9,29.77,South,179,0.0,0.0,53,0.00,CLR,,0.00,WeatherDisplay:10.37,2013-06-28 05:40:00,
2013-06-28 01:41:00,71.9,53.8,29.77,South,179,0.0,0.0,53,0.00,CLR,,0.00,WeatherDisplay:10.37,2013-06-28 05:41:00,
2013-06-28 01:44:00,72.1,54.0,29.77,South,179,0.0,0.0,53,0.00,CLR,,0.00,WeatherDisplay:10.37,2013-06-28 05:44:00,
2013-06-28 01:45:00,72.1,54.0,29.77,South,179,0.0,0.0,53,0.00,CLR,,0.00,WeatherDisplay:10.37,2013-06-28 05:45:00,
2013-06-28 01:46:00,72.2,54.1,29.77,South,179,0.0,0.0,53,0.00,CLR,,0.00,WeatherDisplay:10.37,2013-06-28 05:46:00,
2013-06-28 01:49:00,72.0,53.9,29.77,South,179,0.0,0.0,53,0.00,CLR,,0.00,WeatherDisplay:10.37,2013-06-28 05:49:00,
2013-06-28 01:50:00,72.2,54.1,29.77,South,179,0.0,0.0,53,0.00,CLR,,0.00,WeatherDisplay:10.37,2013-06-28 05:50:00,
2013-06-28 01:51:00,72.1,54.0,29.77,South,179,0.0,0.0,53,0.00,CLR,,0.00,WeatherDisplay:10.37,2013-06-28 05:51:00,
2013-06-28 01:54:00,72.3,54.2,29.77,South,179,0.0,0.0,53,0.00,CLR,,0.00,WeatherDisplay:10.37,2013-06-28 05:54:00,
2013-06-28 01:55:00,72.2,54.1,29.77,South,179,0.0,0.0,53,0.00,CLR,,0.00,WeatherDisplay:10.37,2013-06-28 05:55:00,
2013-06-28 01:57:00,72.3,53.7,29.77,South,179,0.0,0.0,52,0.00,CLR,,0.00,WeatherDisplay:10.37,2013-06-28 05:57:00,
2013-06-28 01:59:00,72.2,53.1,29.77,South,179,0.0,0.0,51,0.00,CLR,,0.00,WeatherDisplay:10.37,2013-06-28 05:59:00,
2013-06-28 02:00:00,72.2,53.1,29.76,South,179,0.0,0.0,51,0.00,CLR,,0.00,WeatherDisplay:10.37,2013-06-28 06:00:00,
2013-06-28 02:02:00,72.4,51.6,29.76,South,179,0.0,0.0,48,0.00,CLR,,0.00,WeatherDisplay:10.37,2013-06-28 06:02:00,
2013-06-28 02:04:00,72.5,51.7,29.76,South,179,0.0,0.0,48,0.00,CLR,,0.00,WeatherDisplay:10.37,2013-06-28 06:04:00,
2013-06-28 02:05:00,72.5,51.7,29.76,South,179,0.0,0.0,48,0.00,CLR,,0.00,WeatherDisplay:10.37,2013-06-28 06:05:00,
2013-06-28 02:07:00,72.4,51.6,29.76,South,179,0.0,0.0,48,0.00,CLR,,0.00,WeatherDisplay:10.37,2013-06-28 06:07:00,
2013-06-28 02:09:00,72.6,52.3,29.76,South,179,0.0,0.0,49,0.00,CLR,,0.00,WeatherDisplay:10.37,2013-06-28 06:09:00,
2013-06-28 02:10:00,72.5,52.2,29.76,South,179,0.0,0.0,49,0.00,CLR,,0.00,WeatherDisplay:10.37,2013-06-28 06:10:00,
2013-06-28 02:12:00,72.7,51.3,29.75,South,179,0.0,0.0,47,0.00,CLR,,0.00,WeatherDisplay:10.37,2013-06-28 06:12:00,
2013-06-28 02:14:00,72.6,52.3,29.75,South,179,0.0,0.0,49,0.00,CLR,,0.00,WeatherDisplay:10.37,2013-06-28 06:14:00,
2013-06-28 02:15:00,72.5,51.7,29.75,South,179,0.0,0.0,48,0.00,CLR,,0.00,WeatherDisplay:10.37,2013-06-28 06:15:00,
2013-06-28 02:17:00,72.6,50.6,29.75,South,179,0.0,0.0,46,0.00,CLR,,0.00,WeatherDisplay:10.37,2013-06-28 06:17:00,
2013-06-28 02:20:00,72.7,51.9,29.75,South,179,0.0,0.0,48,0.00,CLR,,0.00,WeatherDisplay:10.37,2013-06-28 06:20:00,
2013-06-28 02:21:00,72.6,50.0,29.75,South,179,0.0,0.0,45,0.00,CLR,,0.00,WeatherDisplay:10.37,2013-06-28 06:21:00,
2013-06-28 02:23:00,72.5,49.9,29.75,South,179,0.0,0.0,45,0.00,CLR,,0.00,WeatherDisplay:10.37,2013-06-28 06:23:00,
2013-06-28 02:24:00,72.4,51.6,29.75,South,179,0.0,0.0,48,0.00,CLR,,0.00,WeatherDisplay:10.37,2013-06-28 06:24:00,
2013-06-28 02:25:00,72.5,51.1,29.75,SSW,192,0.6,3.4,47,0.00,CLR,,0.00,WeatherDisplay:10.37,2013-06-28 06:25:00,
2013-06-28 02:26:00,72.6,51.8,29.75,SSW,192,0.7,0.0,48,0.00,CLR,,0.00,WeatherDisplay:10.37,2013-06-28 06:26:00,
2013-06-28 02:28:00,72.8,52.0,29.74,SSW,192,0.0,0.0,48,0.00,CLR,,0.00,WeatherDisplay:10.37,2013-06-28 06:28:00,
2013-06-28 02:30:00,72.6,52.3,29.74,SSW,192,0.0,0.0,49,0.00,CLR,,0.00,WeatherDisplay:10.37,2013-06-28 06:30:00,
2013-06-28 02:31:00,72.5,52.2,29.74,SSW,192,0.0,0.0,49,0.00,CLR,,0.00,WeatherDisplay:10.37,2013-06-28 06:31:00,
2013-06-28 02:33:00,72.4,52.7,29.74,SSW,192,0.0,0.0,50,0.00,CLR,,0.00,WeatherDisplay:10.37,2013-06-28 06:33:00,
2013-06-28 02:35:00,72.6,52.9,29.74,SSW,192,0.0,0.0,50,0.00,CLR,,0.00,WeatherDisplay:10.37,2013-06-28 06:35:00,
2013-06-28 02:36:00,72.5,52.8,29.74,SSW,192,0.0,0.0,50,0.00,CLR,,0.00,WeatherDisplay:10.37,2013-06-28 06:36:00,
2013-06-28 02:38:00,72.6,52.3,29.74,SSW,192,0.0,0.0,49,0.00,CLR,,0.00,WeatherDisplay:10.37,2013-06-28 06:38:00,
2013-06-28 02:40:00,72.4,52.2,29.74,SSW,192,0.0,0.0,49,0.00,CLR,,0.00,WeatherDisplay:10.37,2013-06-28 06:40:00,
2013-06-28 02:41:00,72.4,52.2,29.74,SSW,192,0.0,0.0,49,0.00,CLR,,0.00,WeatherDisplay:10.37,2013-06-28 06:41:00,
2013-06-28 02:43:00,72.6,52.9,29.74,SSW,192,0.0,0.0,50,0.00,CLR,,0.00,WeatherDisplay:10.37,2013-06-28 06:43:00,
2013-06-28 02:45:00,72.3,52.6,29.74,SSW,192,0.0,0.0,50,0.00,CLR,,0.00,WeatherDisplay:10.37,2013-06-28 06:45:00,
2013-06-28 02:46:00,72.3,52.6,29.74,SSW,192,0.0,0.0,50,0.00,CLR,,0.00,WeatherDisplay:10.37,2013-06-28 06:46:00,
2013-06-28 02:47:00,72.4,52.7,29.74,SSW,192,0.0,0.0,50,0.00,CLR,,0.00,WeatherDisplay:10.37,2013-06-28 06:47:00,
2013-06-28 02:48:00,72.4,52.7,29.74,SSW,192,0.0,0.0,50,0.00,CLR,,0.00,WeatherDisplay:10.37,2013-06-28 06:48:00,
2013-06-28 02:50:00,72.4,53.2,29.74,SSW,192,0.0,0.0,51,0.00,CLR,,0.00,WeatherDisplay:10.37,2013-06-28 06:50:00,
2013-06-28 02:51:00,72.2,53.1,29.73,SSW,192,0.0,0.0,51,0.00,CLR,,0.00,WeatherDisplay:10.37,2013-06-28 06:51:00,
2013-06-28 02:52:00,72.3,52.6,29.73,SSW,192,0.0,0.0,50,0.00,CLR,,0.00,WeatherDisplay:10.37,2013-06-28 06:52:00,
2013-06-28 02:54:00,72.3,51.5,29.73,SSW,192,0.0,0.0,48,0.00,CLR,,0.00,WeatherDisplay:10.37,2013-06-28 06:54:00,
2013-06-28 02:55:00,72.2,49.7,29.73,SSW,192,0.0,0.0,45,0.00,CLR,,0.00,WeatherDisplay:10.37,2013-06-28 06:55:00,
2013-06-28 02:56:00,72.4,52.2,29.73,SSW,192,0.0,0.0,49,0.00,CLR,,0.00,WeatherDisplay:10.37,2013-06-28 06:56:00,
2013-06-28 02:57:00,72.2,52.0,29.73,SSW,192,0.0,0.0,49,0.00,CLR,,0.00,WeatherDisplay:10.37,2013-06-28 06:57:00,
2013-06-28 02:59:00,72.0,53.4,29.73,SSW,192,0.0,0.0,52,0.00,CLR,,0.00,WeatherDisplay:10.37,2013-06-28 06:59:00,
2013-06-28 03:00:00,71.9,53.3,29.73,SSW,192,0.0,0.0,52,0.00,CLR,,0.00,WeatherDisplay:10.37,2013-06-28 07:00:00,
2013-06-28 03:01:00,72.2,53.1,29.73,SSW,192,0.0,0.0,51,0.00,CLR,,0.00,WeatherDisplay:10.37,2013-06-28 07:01:00,
2013-06-28 03:02:00,72.2,53.1,29.73,SSW,192,0.0,0.0,51,0.00,CLR,,0.00,WeatherDisplay:10.37,2013-06-28 07:02:00,
2013-06-28 03:03:00,72.0,52.9,29.73,SSW,192,0.0,0.0,51,0.00,CLR,,0.00,WeatherDisplay:10.37,2013-06-28 07:03:00,
2013-06-28 03:04:00,71.9,52.2,29.73,SSW,192,0.0,0.0,50,0.00,CLR,,0.00,WeatherDisplay:10.37,2013-06-28 07:04:00,
2013-06-28 03:05:00,71.8,54.8,29.73,SSW,192,0.0,0.0,55,0.00,CLR,,0.00,WeatherDisplay:10.37,2013-06-28 07:05:00,
2013-06-28 03:06:00,71.7,54.7,29.73,SSW,192,0.0,0.0,55,0.00,CLR,,0.00,WeatherDisplay:10.37,2013-06-28 07:06:00,
2013-06-28 03:08:00,71.8,54.3,29.73,SSW,192,0.0,0.0,54,0.00,CLR,,0.00,WeatherDisplay:10.37,2013-06-28 07:08:00,
2013-06-28 03:09:00,72.0,54.4,29.73,SSW,192,0.0,0.0,54,0.00,CLR,,0.00,WeatherDisplay:10.37,2013-06-28 07:09:00,
2013-06-28 03:10:00,72.0,54.4,29.73,SSW,192,0.0,0.0,54,0.00,CLR,,0.00,WeatherDisplay:10.37,2013-06-28 07:10:00,
2013-06-28 03:12:00,71.8,54.8,29.73,SSW,192,0.0,0.0,55,0.00,CLR,,0.00,WeatherDisplay:10.37,2013-06-28 07:12:00,
2013-06-28 03:13:00,72.1,54.5,29.73,SSW,192,0.0,0.0,54,0.00,CLR,,0.00,WeatherDisplay:10.37,2013-06-28 07:13:00,
2013-06-28 03:15:00,72.2,54.6,29.73,SSW,192,0.0,0.0,54,0.00,CLR,,0.00,WeatherDisplay:10.37,2013-06-28 07:15:00,
2013-06-28 03:17:00,71.9,54.9,29.73,SSW,192,0.0,0.0,55,0.00,CLR,,0.00,WeatherDisplay:10.37,2013-06-28 07:17:00,
2013-06-28 03:18:00,71.7,54.7,29.73,SSW,192,0.0,0.0,55,0.00,CLR,,0.00,WeatherDisplay:10.37,2013-06-28 07:18:00,
2013-06-28 03:20:00,71.7,54.7,29.73,SSW,192,0.0,0.0,55,0.00,CLR,,0.00,WeatherDisplay:10.37,2013-06-28 07:20:00,
2013-06-28 03:22:00,71.9,54.9,29.73,SSW,192,0.0,0.0,55,0.00,CLR,,0.00,WeatherDisplay:10.37,2013-06-28 07:22:00,
2013-06-28 03:23:00,71.8,56.2,29.73,SSW,192,0.0,0.0,58,0.00,CLR,,0.00,WeatherDisplay:10.37,2013-06-28 07:23:00,
2013-06-28 03:24:00,71.5,55.5,29.73,SSW,192,0.0,0.0,57,0.00,CLR,,0.00,WeatherDisplay:10.37,2013-06-28 07:24:00,
2013-06-28 03:25:00,71.7,56.1,29.73,SSW,192,0.0,0.0,58,0.00,CLR,,0.00,WeatherDisplay:10.37,2013-06-28 07:25:00,
2013-06-28 03:26:00,71.5,55.9,29.73,SSW,192,0.0,0.0,58,0.00,CLR,,0.00,WeatherDisplay:10.37,2013-06-28 07:26:00,
2013-06-28 03:27:00,71.7,56.1,29.73,SSW,192,0.0,0.0,58,0.00,CLR,,0.00,WeatherDisplay:10.37,2013-06-28 07:27:00,
2013-06-28 03:29:00,71.6,56.0,29.73,SSW,192,0.0,0.0,58,0.00,CLR,,0.00,WeatherDisplay:10.37,2013-06-28 07:29:00,
2013-06-28 03:30:00,71.5,56.4,29.73,SSW,192,0.0,0.0,59,0.00,CLR,,0.00,WeatherDisplay:10.37,2013-06-28 07:30:00,
2013-06-28 03:31:00,71.6,56.5,29.74,SSW,192,0.0,0.0,59,0.00,CLR,,0.00,WeatherDisplay:10.37,2013-06-28 07:31:00,
2013-06-28 03:32:00,71.5,56.4,29.73,North,350,0.4,6.1,59,0.00,CLR,,0.00,WeatherDisplay:10.37,2013-06-28 07:32:00,
2013-06-28 03:34:00,71.6,56.0,29.73,WNW,295,3.2,5.8,58,0.00,CLR,,0.00,WeatherDisplay:10.37,2013-06-28 07:34:00,
2013-06-28 03:35:00,71.7,55.7,29.73,NW,311,4.5,6.3,57,0.00,CLR,,0.00,WeatherDisplay:10.37,2013-06-28 07:35:00,
2013-06-28 03:36:00,71.7,55.2,29.74,WNW,296,6.0,6.0,56,0.00,CLR,,0.00,WeatherDisplay:10.37,2013-06-28 07:36:00,
2013-06-28 03:38:00,71.9,54.9,29.74,NNW,332,2.4,5.8,55,0.00,CLR,,0.00,WeatherDisplay:10.37,2013-06-28 07:38:00,
2013-06-28 03:40:00,71.8,54.3,29.74,NW,305,3.3,5.8,54,0.00,CLR,,0.00,WeatherDisplay:10.37,2013-06-28 07:40:00,
2013-06-28 03:41:00,72.0,54.4,29.73,WNW,288,0.5,3.5,54,0.00,CLR,,0.00,WeatherDisplay:10.37,2013-06-28 07:41:00,
2013-06-28 03:43:00,71.8,53.7,29.74,WNW,288,0.0,0.0,53,0.00,CLR,,0.00,WeatherDisplay:10.37,2013-06-28 07:43:00,
2013-06-28 03:45:00,72.1,54.0,29.74,WNW,288,0.0,0.0,53,0.00,CLR,,0.00,WeatherDisplay:10.37,2013-06-28 07:45:00,
2013-06-28 03:46:00,71.9,53.8,29.74,WNW,288,0.0,0.0,53,0.00,CLR,,0.00,WeatherDisplay:10.37,2013-06-28 07:46:00,
2013-06-28 03:48:00,72.2,54.1,29.74,WNW,288,0.0,0.0,53,0.00,CLR,,0.00,WeatherDisplay:10.37,2013-06-28 07:48:00,
2013-06-28 03:50:00,72.2,54.1,29.74,WNW,288,0.0,0.0,53,0.00,CLR,,0.00,WeatherDisplay:10.37,2013-06-28 07:50:00,
2013-06-28 03:52:00,71.9,53.8,29.74,WNW,288,0.0,0.0,53,0.00,CLR,,0.00,WeatherDisplay:10.37,2013-06-28 07:52:00,
2013-06-28 03:53:00,72.0,53.9,29.74,WNW,288,0.0,0.0,53,0.00,CLR,,0.00,WeatherDisplay:10.37,2013-06-28 07:53:00,
2013-06-28 03:55:00,72.3,54.2,29.74,WNW,288,0.0,0.0,53,0.00,CLR,,0.00,WeatherDisplay:10.37,2013-06-28 07:55:00,
2013-06-28 03:56:00,72.2,54.6,29.74,WNW,288,0.0,0.0,54,0.00,CLR,,0.00,WeatherDisplay:10.37,2013-06-28 07:56:00,
2013-06-28 03:57:00,72.0,54.4,29.73,WNW,288,0.0,0.0,54,0.00,CLR,,0.00,WeatherDisplay:10.37,2013-06-28 07:57:00,
2013-06-28 03:58:00,71.9,54.3,29.73,WNW,288,0.0,0.0,54,0.00,CLR,,0.00,WeatherDisplay:10.37,2013-06-28 07:58:00,
2013-06-28 04:00:00,72.1,54.0,29.73,WNW,288,0.0,0.0,53,0.00,CLR,,0.00,WeatherDisplay:10.37,2013-06-28 08:00:00,
2013-06-28 04:01:00,71.8,54.3,29.73,WNW,288,0.0,0.0,54,0.00,CLR,,0.00,WeatherDisplay:10.37,2013-06-28 08:01:00,
2013-06-28 04:02:00,72.0,54.4,29.73,WNW,288,0.0,0.0,54,0.00,CLR,,0.00,WeatherDisplay:10.37,2013-06-28 08:02:00,
2013-06-28 04:04:00,72.0,54.4,29.73,WNW,288,0.0,0.0,54,0.00,CLR,,0.00,WeatherDisplay:10.37,2013-06-28 08:04:00,
2013-06-28 04:05:00,71.9,54.9,29.73,WNW,288,0.0,0.0,55,0.00,CLR,,0.00,WeatherDisplay:10.37,2013-06-28 08:05:00,
2013-06-28 04:07:00,71.8,54.8,29.73,WNW,288,0.0,0.0,55,0.00,CLR,,0.00,WeatherDisplay:10.37,2013-06-28 08:07:00,
2013-06-28 04:09:00,71.9,54.9,29.73,WNW,288,0.0,0.0,55,0.00,CLR,,0.00,WeatherDisplay:10.37,2013-06-28 08:09:00,
2013-06-28 04:10:00,71.8,54.8,29.73,WNW,288,0.0,0.0,55,0.00,CLR,,0.00,WeatherDisplay:10.37,2013-06-28 08:10:00,
2013-06-28 04:11:00,72.1,55.0,29.73,WNW,288,0.0,0.0,55,0.00,CLR,,0.00,WeatherDisplay:10.37,2013-06-28 08:11:00,
2013-06-28 04:12:00,72.1,55.0,29.73,WNW,288,0.0,0.0,55,0.00,CLR,,0.00,WeatherDisplay:10.37,2013-06-28 08:12:00,
2013-06-28 04:14:00,72.1,55.0,29.73,WNW,288,0.0,0.0,55,0.00,CLR,,0.00,WeatherDisplay:10.37,2013-06-28 08:14:00,
2013-06-28 04:16:00,71.8,54.8,29.73,WNW,288,0.0,0.0,55,0.00,CLR,,0.00,WeatherDisplay:10.37,2013-06-28 08:16:00,
2013-06-28 04:17:00,71.8,54.8,29.73,WNW,288,0.0,0.0,55,0.00,CLR,,0.00,WeatherDisplay:10.37,2013-06-28 08:17:00,
2013-06-28 04:19:00,71.9,55.3,29.73,WNW,288,0.0,0.0,56,0.00,CLR,,0.00,WeatherDisplay:10.37,2013-06-28 08:19:00,
2013-06-28 04:21:00,71.7,55.2,29.73,WNW,288,0.0,0.0,56,0.00,CLR,,0.00,WeatherDisplay:10.37,2013-06-28 08:21:00,
2013-06-28 04:22:00,71.7,55.2,29.73,WNW,288,0.0,0.0,56,0.00,CLR,,0.00,WeatherDisplay:10.37,2013-06-28 08:22:00,
2013-06-28 04:23:00,72.0,55.4,29.73,WNW,288,0.0,0.0,56,0.00,CLR,,0.00,WeatherDisplay:10.37,2013-06-28 08:23:00,
2013-06-28 04:24:00,72.0,55.4,29.73,WNW,288,0.0,0.0,56,0.00,CLR,,0.00,WeatherDisplay:10.37,2013-06-28 08:24:00,
2013-06-28 04:27:00,71.6,55.1,29.73,WNW,288,0.0,0.0,56,0.00,CLR,,0.00,WeatherDisplay:10.37,2013-06-28 08:27:00,
2013-06-28 04:28:00,71.8,55.3,29.73,WNW,288,0.0,0.0,56,0.00,CLR,,0.00,WeatherDisplay:10.37,2013-06-28 08:28:00,
2013-06-28 04:29:00,71.9,55.8,29.73,WNW,288,0.0,0.0,57,0.00,CLR,,0.00,WeatherDisplay:10.37,2013-06-28 08:29:00,
2013-06-28 04:32:00,71.8,55.7,29.73,WNW,288,0.0,0.0,57,0.00,CLR,,0.00,WeatherDisplay:10.37,2013-06-28 08:32:00,
2013-06-28 04:33:00,71.8,55.3,29.73,WNW,288,0.0,0.0,56,0.00,CLR,,0.00,WeatherDisplay:10.37,2013-06-28 08:33:00,
2013-06-28 04:34:00,71.8,54.8,29.73,WNW,288,0.0,0.0,55,0.00,CLR,,0.00,WeatherDisplay:10.37,2013-06-28 08:34:00,
2013-06-28 04:37:00,71.7,55.7,29.73,WNW,288,0.0,0.0,57,0.00,CLR,,0.00,WeatherDisplay:10.37,2013-06-28 08:37:00,
2013-06-28 04:38:00,71.5,55.5,29.73,WNW,288,0.0,0.0,57,0.00,CLR,,0.00,WeatherDisplay:10.37,2013-06-28 08:38:00,
2013-06-28 04:40:00,71.7,56.1,29.73,WNW,288,0.0,0.0,58,0.00,CLR,,0.00,WeatherDisplay:10.37,2013-06-28 08:40:00,
2013-06-28 04:42:00,71.6,55.6,29.73,WNW,288,0.0,0.0,57,0.00,CLR,,0.00,WeatherDisplay:10.37,2013-06-28 08:42:00,
2013-06-28 04:43:00,71.4,54.4,29.73,WNW,288,0.0,0.0,55,0.00,CLR,,0.00,WeatherDisplay:10.37,2013-06-28 08:43:00,
2013-06-28 04:45:00,71.3,55.3,29.73,WNW,288,0.0,0.0,57,0.00,CLR,,0.00,WeatherDisplay:10.37,2013-06-28 08:45:00,
2013-06-28 04:47:00,71.5,55.9,29.73,WNW,288,0.0,0.0,58,0.00,CLR,,0.00,WeatherDisplay:10.37,2013-06-28 08:47:00,
2013-06-28 04:48:00,71.4,55.9,29.73,WNW,288,0.0,0.0,58,0.00,CLR,,0.00,WeatherDisplay:10.37,2013-06-28 08:48:00,
2013-06-28 04:49:00,71.3,55.8,29.73,WNW,288,0.0,0.0,58,0.00,CLR,,0.00,WeatherDisplay:10.37,2013-06-28 08:49:00,
2013-06-28 04:50:00,71.2,55.7,29.73,WNW,288,0.0,0.0,58,0.00,CLR,,0.00,WeatherDisplay:10.37,2013-06-28 08:50:00,
2013-06-28 04:52:00,71.2,56.1,29.73,WNW,288,0.0,0.0,59,0.00,CLR,,0.00,WeatherDisplay:10.37,2013-06-28 08:52:00,
2013-06-28 04:53:00,71.1,55.1,29.73,WNW,288,0.0,0.0,57,0.00,CLR,,0.00,WeatherDisplay:10.37,2013-06-28 08:53:00,
2013-06-28 04:54:00,71.2,54.7,29.73,WNW,288,0.0,0.0,56,0.00,CLR,,0.00,WeatherDisplay:10.37,2013-06-28 08:54:00,
2013-06-28 04:55:00,71.0,55.5,29.73,WNW,288,0.0,0.0,58,0.00,CLR,,0.00,WeatherDisplay:10.37,2013-06-28 08:55:00,
2013-06-28 04:57:00,71.0,54.0,29.73,WNW,288,0.0,0.0,55,0.00,CLR,,0.00,WeatherDisplay:10.37,2013-06-28 08:57:00,
2013-06-28 04:58:00,70.9,53.4,29.74,WNW,288,0.0,0.0,54,0.00,CLR,,0.00,WeatherDisplay:10.37,2013-06-28 08:58:00,
2013-06-28 04:59:00,71.0,54.0,29.74,WNW,288,0.0,0.0,55,0.00,CLR,,0.00,WeatherDisplay:10.37,2013-06-28 08:59:00,
2013-06-28 05:00:00,70.7,52.7,29.74,WNW,288,0.0,0.0,53,0.00,CLR,,0.00,WeatherDisplay:10.37,2013-06-28 09:00:00,
2013-06-28 05:02:00,70.7,55.7,29.74,WNW,288,0.0,0.0,59,0.00,CLR,,0.00,WeatherDisplay:10.37,2013-06-28 09:02:00,
2013-06-28 05:03:00,70.8,55.8,29.74,WNW,288,0.0,0.0,59,0.00,CLR,,0.00,WeatherDisplay:10.37,2013-06-28 09:03:00,
2013-06-28 05:04:00,70.6,56.5,29.74,WNW,288,0.0,0.0,61,0.00,CLR,,0.00,WeatherDisplay:10.37,2013-06-28 09:04:00,
2013-06-28 05:05:00,70.8,56.7,29.74,WNW,288,0.0,0.0,61,0.00,CLR,,0.00,WeatherDisplay:10.37,2013-06-28 09:05:00,
2013-06-28 05:07:00,70.3,54.3,29.74,WNW,288,0.0,0.0,57,0.00,CLR,,0.00,WeatherDisplay:10.37,2013-06-28 09:07:00,
2013-06-28 05:08:00,70.5,54.5,29.74,WNW,288,0.0,0.0,57,0.00,CLR,,0.00,WeatherDisplay:10.37,2013-06-28 09:08:00,
2013-06-28 05:09:00,70.5,53.1,29.74,WNW,288,0.0,0.0,54,0.00,CLR,,0.00,WeatherDisplay:10.37,2013-06-28 09:09:00,
2013-06-28 05:11:00,70.2,51.7,29.74,WNW,288,0.0,0.0,52,0.00,CLR,,0.00,WeatherDisplay:10.37,2013-06-28 09:11:00,
2013-06-28 05:12:00,70.5,57.7,29.74,WNW,288,0.0,0.0,64,0.00,CLR,,0.00,WeatherDisplay:10.37,2013-06-28 09:12:00,
2013-06-28 05:13:00,70.5,57.7,29.74,WNW,288,0.0,0.0,64,0.00,CLR,,0.00,WeatherDisplay:10.37,2013-06-28 09:13:00,
2013-06-28 05:14:00,70.5,58.6,29.74,WNW,288,0.0,0.0,66,0.00,CLR,,0.00,WeatherDisplay:10.37,2013-06-28 09:14:00,
2013-06-28 05:16:00,70.7,58.4,29.74,WNW,288,0.0,0.0,65,0.00,CLR,,0.00,WeatherDisplay:10.37,2013-06-28 09:16:00,
2013-06-28 05:17:00,70.4,55.4,29.74,WNW,288,0.0,0.0,59,0.00,CLR,,0.00,WeatherDisplay:10.37,2013-06-28 09:17:00,
2013-06-28 05:18:00,70.2,54.7,29.74,WNW,288,0.0,0.0,58,0.00,CLR,,0.00,WeatherDisplay:10.37,2013-06-28 09:18:00,
2013-06-28 05:19:00,70.2,53.3,29.74,WNW,288,0.0,0.0,55,0.00,CLR,,0.00,WeatherDisplay:10.37,2013-06-28 09:19:00,
2013-06-28 05:21:00,70.4,53.5,29.74,WNW,288,0.0,0.0,55,0.00,CLR,,0.00,WeatherDisplay:10.37,2013-06-28 09:21:00,
2013-06-28 05:22:00,70.3,54.3,29.73,WNW,288,0.0,0.0,57,0.00,CLR,,0.00,WeatherDisplay:10.37,2013-06-28 09:22:00,
2013-06-28 05:24:00,70.4,54.9,29.73,WNW,288,0.0,0.0,58,0.00,CLR,,0.00,WeatherDisplay:10.37,2013-06-28 09:24:00,
2013-06-28 05:25:00,70.3,56.7,29.73,WNW,288,0.0,0.0,62,0.00,CLR,,0.00,WeatherDisplay:10.37,2013-06-28 09:25:00,
2013-06-28 05:26:00,70.2,57.9,29.74,WNW,288,0.0,0.0,65,0.00,CLR,,0.00,WeatherDisplay:10.37,2013-06-28 09:26:00,
2013-06-28 05:28:00,70.3,59.2,29.74,WNW,288,0.0,0.0,68,0.00,CLR,,0.00,WeatherDisplay:10.37,2013-06-28 09:28:00,
2013-06-28 05:29:00,70.2,60.0,29.74,WNW,288,0.0,0.0,70,0.00,CLR,,0.00,WeatherDisplay:10.37,2013-06-28 09:29:00,
2013-06-28 05:30:00,70.3,60.1,29.74,WNW,288,0.0,0.0,70,0.00,CLR,,0.00,WeatherDisplay:10.37,2013-06-28 09:30:00,
2013-06-28 05:31:00,70.2,60.4,29.74,WNW,288,0.0,0.0,71,0.00,CLR,,0.00,WeatherDisplay:10.37,2013-06-28 09:31:00,
2013-06-28 05:33:00,70.3,60.8,29.73,WNW,288,0.0,0.0,72,0.00,CLR,,0.00,WeatherDisplay:10.37,2013-06-28 09:33:00,
2013-06-28 05:35:00,70.0,60.6,29.73,WNW,288,0.0,0.0,72,0.00,CLR,,0.00,WeatherDisplay:10.37,2013-06-28 09:35:00,
2013-06-28 05:36:00,70.0,60.6,29.73,WNW,288,0.0,0.0,72,0.00,CLR,,0.00,WeatherDisplay:10.37,2013-06-28 09:36:00,
2013-06-28 05:38:00,70.1,59.9,29.73,WNW,288,0.0,0.0,70,0.00,CLR,,0.00,WeatherDisplay:10.37,2013-06-28 09:38:00,
2013-06-28 05:40:00,70.2,59.6,29.73,WNW,288,0.0,0.0,69,0.00,CLR,,0.00,WeatherDisplay:10.37,2013-06-28 09:40:00,
2013-06-28 05:42:00,70.1,60.3,29.74,WNW,288,0.0,0.0,71,0.00,CLR,,0.00,WeatherDisplay:10.37,2013-06-28 09:42:00,
2013-06-28 05:43:00,70.3,60.4,29.73,WNW,288,0.0,0.0,71,0.00,CLR,,0.00,WeatherDisplay:10.37,2013-06-28 09:43:00,
2013-06-28 05:45:00,70.4,60.1,29.73,WNW,288,0.0,0.0,70,0.00,CLR,,0.00,WeatherDisplay:10.37,2013-06-28 09:45:00,
2013-06-28 05:47:00,70.4,60.1,29.73,WNW,288,0.0,0.0,70,0.00,CLR,,0.00,WeatherDisplay:10.37,2013-06-28 09:47:00,
2013-06-28 05:48:00,70.5,60.2,29.73,WNW,288,0.0,0.0,70,0.00,CLR,,0.00,WeatherDisplay:10.37,2013-06-28 09:48:00,
2013-06-28 05:50:00,70.7,59.6,29.73,WNW,288,0.0,0.0,68,0.00,CLR,,0.00,WeatherDisplay:10.37,2013-06-28 09:50:00,
2013-06-28 05:52:00,70.7,59.2,29.73,WNW,288,0.0,0.0,67,0.00,CLR,,0.00,WeatherDisplay:10.37,2013-06-28 09:52:00,
2013-06-28 05:53:00,70.7,59.2,29.73,WNW,288,0.0,0.0,67,0.00,CLR,,0.00,WeatherDisplay:10.37,2013-06-28 09:53:00,
2013-06-28 05:55:00,70.8,58.4,29.73,WNW,288,0.0,0.0,65,0.00,CLR,,0.00,WeatherDisplay:10.37,2013-06-28 09:55:00,
2013-06-28 05:57:00,70.9,58.5,29.73,WNW,288,0.0,0.0,65,0.00,CLR,,0.00,WeatherDisplay:10.37,2013-06-28 09:57:00,
2013-06-28 05:58:00,70.8,58.0,29.73,WNW,288,0.0,0.0,64,0.00,CLR,,0.00,WeatherDisplay:10.37,2013-06-28 09:58:00,
2013-06-28 06:00:00,70.8,58.4,29.73,WNW,288,0.0,0.0,65,0.00,CLR,,0.00,WeatherDisplay:10.37,2013-06-28 10:00:00,
2013-06-28 06:01:00,70.9,58.1,29.73,WNW,288,0.0,0.0,64,0.00,CLR,,0.00,WeatherDisplay:10.37,2013-06-28 10:01:00,
2013-06-28 06:02:00,70.9,58.1,29.73,WNW,288,0.0,0.0,64,0.00,CLR,,0.00,WeatherDisplay:10.37,2013-06-28 10:02:00,
2013-06-28 06:03:00,70.9,58.1,29.73,WNW,288,0.0,0.0,64,0.00,CLR,,0.00,WeatherDisplay:10.37,2013-06-28 10:03:00,
2013-06-28 06:05:00,71.1,57.9,29.73,WNW,288,0.0,0.0,63,0.00,CLR,,0.00,WeatherDisplay:10.37,2013-06-28 10:05:00,
2013-06-28 06:07:00,71.1,57.9,29.73,WNW,288,0.0,0.0,63,0.00,CLR,,0.00,WeatherDisplay:10.37,2013-06-28 10:07:00,
2013-06-28 06:08:00,71.2,58.0,29.73,WNW,288,0.0,0.0,63,0.00,CLR,,0.00,WeatherDisplay:10.37,2013-06-28 10:08:00,
2013-06-28 06:10:00,70.7,56.1,29.73,WNW,288,0.0,0.0,60,0.00,CLR,,0.00,WeatherDisplay:10.37,2013-06-28 10:10:00,
2013-06-28 06:12:00,70.9,57.2,29.73,WNW,288,0.0,0.0,62,0.00,CLR,,0.00,WeatherDisplay:10.37,2013-06-28 10:12:00,
2013-06-28 06:13:00,71.0,57.3,29.73,WNW,288,0.0,0.0,62,0.00,CLR,,0.00,WeatherDisplay:10.37,2013-06-28 10:13:00,
2013-06-28 06:14:00,71.1,56.5,29.73,WNW,288,0.0,0.0,60,0.00,CLR,,0.00,WeatherDisplay:10.37,2013-06-28 10:14:00,
2013-06-28 06:16:00,71.0,56.4,29.73,WNW,288,0.0,0.0,60,0.00,CLR,,0.00,WeatherDisplay:10.37,2013-06-28 10:16:00,
2013-06-28 06:17:00,71.2,56.1,29.73,WNW,288,0.0,0.0,59,0.00,CLR,,0.00,WeatherDisplay:10.37,2013-06-28 10:17:00,
2013-06-28 06:18:00,71.3,56.7,29.73,WNW,288,0.0,0.0,60,0.00,CLR,,0.00,WeatherDisplay:10.37,2013-06-28 10:18:00,
2013-06-28 06:19:00,70.7,56.1,29.73,WNW,288,0.0,0.0,60,0.00,CLR,,0.00,WeatherDisplay:10.37,2013-06-28 10:19:00,
2013-06-28 06:21:00,71.0,56.9,29.73,WNW,288,0.0,0.0,61,0.00,CLR,,0.00,WeatherDisplay:10.37,2013-06-28 10:21:00,
2013-06-28 06:22:00,70.8,57.1,29.73,WNW,288,0.0,0.0,62,0.00,CLR,,0.00,WeatherDisplay:10.37,2013-06-28 10:22:00,
2013-06-28 06:23:00,70.7,57.0,29.73,WNW,288,0.0,0.0,62,0.00,CLR,,0.00,WeatherDisplay:10.37,2013-06-28 10:23:00,
2013-06-28 06:24:00,70.7,57.5,29.73,WNW,288,0.0,0.0,63,0.00,CLR,,0.00,WeatherDisplay:10.37,2013-06-28 10:24:00,
2013-06-28 06:26:00,70.5,57.7,29.73,WNW,288,0.0,0.0,64,0.00,CLR,,0.00,WeatherDisplay:10.37,2013-06-28 10:26:00,
2013-06-28 06:27:00,70.4,56.8,29.73,WNW,288,0.0,0.0,62,0.00,CLR,,0.00,WeatherDisplay:10.37,2013-06-28 10:27:00,
2013-06-28 06:29:00,70.3,56.2,29.73,WNW,288,0.0,0.0,61,0.00,CLR,,0.00,WeatherDisplay:10.37,2013-06-28 10:29:00,
2013-06-28 06:30:00,70.3,56.2,29.72,WNW,288,0.0,0.0,61,0.00,CLR,,0.00,WeatherDisplay:10.37,2013-06-28 10:30:00,
2013-06-28 06:31:00,70.4,55.4,29.72,WNW,288,0.0,0.0,59,0.00,CLR,,0.00,WeatherDisplay:10.37,2013-06-28 10:31:00,
2013-06-28 06:32:00,70.5,55.0,29.72,WNW,288,0.0,0.0,58,0.00,CLR,,0.00,WeatherDisplay:10.37,2013-06-28 10:32:00,
2013-06-28 06:34:00,70.7,56.1,29.72,WNW,288,0.0,0.0,60,0.00,CLR,,0.00,WeatherDisplay:10.37,2013-06-28 10:34:00,
2013-06-28 06:35:00,70.5,57.3,29.72,WNW,288,0.0,0.0,63,0.00,CLR,,0.00,WeatherDisplay:10.37,2013-06-28 10:35:00,
2013-06-28 06:36:00,70.7,57.5,29.72,WNW,288,0.0,0.0,63,0.00,CLR,,0.00,WeatherDisplay:10.37,2013-06-28 10:36:00,
2013-06-28 06:37:00,70.5,56.9,29.72,WNW,288,0.0,0.0,62,0.00,CLR,,0.00,WeatherDisplay:10.37,2013-06-28 10:37:00,
2013-06-28 06:39:00,70.7,57.0,29.72,WNW,288,0.0,0.0,62,0.00,CLR,,0.00,WeatherDisplay:10.37,2013-06-28 10:39:00,
2013-06-28 06:40:00,70.2,56.6,29.72,WNW,288,0.0,0.0,62,0.00,CLR,,0.00,WeatherDisplay:10.37,2013-06-28 10:40:00,
2013-06-28 06:41:00,70.5,56.9,29.72,WNW,288,0.0,0.0,62,0.00,CLR,,0.00,WeatherDisplay:10.37,2013-06-28 10:41:00,
2013-06-28 06:42:00,70.4,56.8,29.72,WNW,288,0.0,0.0,62,0.00,CLR,,0.00,WeatherDisplay:10.37,2013-06-28 10:42:00,
2013-06-28 06:43:00,70.3,56.7,29.72,WNW,288,0.0,0.0,62,0.00,CLR,,0.00,WeatherDisplay:10.37,2013-06-28 10:43:00,
2013-06-28 06:44:00,70.3,57.5,29.72,WNW,288,0.0,0.0,64,0.00,CLR,,0.00,WeatherDisplay:10.37,2013-06-28 10:44:00,
2013-06-28 06:45:00,70.4,58.9,29.72,WNW,288,0.0,0.0,67,0.00,CLR,,0.00,WeatherDisplay:10.37,2013-06-28 10:45:00,
2013-06-28 06:46:00,70.2,59.1,29.72,WNW,288,0.0,0.0,68,0.00,CLR,,0.00,WeatherDisplay:10.37,2013-06-28 10:46:00,
2013-06-28 06:47:00,70.2,59.6,29.72,WNW,288,0.0,0.0,69,0.00,CLR,,0.00,WeatherDisplay:10.37,2013-06-28 10:47:00,
2013-06-28 06:48:00,70.2,59.6,29.72,WNW,288,0.0,0.0,69,0.00,CLR,,0.00,WeatherDisplay:10.37,2013-06-28 10:48:00,
2013-06-28 06:49:00,70.2,59.6,29.72,WNW,288,0.0,0.0,69,0.00,CLR,,0.00,WeatherDisplay:10.37,2013-06-28 10:49:00,
2013-06-28 06:51:00,70.4,60.1,29.72,WNW,288,0.0,0.0,70,0.00,CLR,,0.00,WeatherDisplay:10.37,2013-06-28 10:51:00,
2013-06-28 06:52:00,70.1,59.9,29.72,WNW,288,0.0,0.0,70,0.00,CLR,,0.00,WeatherDisplay:10.37,2013-06-28 10:52:00,
2013-06-28 06:53:00,70.2,60.0,29.73,WNW,288,0.0,0.0,70,0.00,CLR,,0.00,WeatherDisplay:10.37,2013-06-28 10:53:00,
2013-06-28 06:55:00,70.1,59.9,29.72,WNW,288,0.0,0.0,70,0.00,CLR,,0.00,WeatherDisplay:10.37,2013-06-28 10:55:00,
2013-06-28 06:56:00,70.3,60.1,29.72,WNW,288,0.0,0.0,70,0.00,CLR,,0.00,WeatherDisplay:10.37,2013-06-28 10:56:00,
2013-06-28 06:57:00,70.1,59.5,29.72,WNW,288,0.0,0.0,69,0.00,CLR,,0.00,WeatherDisplay:10.37,2013-06-28 10:57:00,
2013-06-28 06:58:00,70.3,59.6,29.72,WNW,288,0.0,0.0,69,0.00,CLR,,0.00,WeatherDisplay:10.37,2013-06-28 10:58:00,
2013-06-28 07:00:00,70.4,59.3,29.72,WNW,288,0.0,0.0,68,0.00,CLR,,0.00,WeatherDisplay:10.37,2013-06-28 11:00:00,
2013-06-28 07:01:00,70.4,58.9,29.72,WNW,288,0.0,0.0,67,0.00,CLR,,0.00,WeatherDisplay:10.37,2013-06-28 11:01:00,
2013-06-28 07:02:00,71.0,59.1,29.73,WNW,288,0.0,0.0,66,0.00,CLR,,0.00,WeatherDisplay:10.37,2013-06-28 11:02:00,
2013-06-28 07:03:00,70.6,58.3,29.73,WNW,288,0.0,0.0,65,0.00,CLR,,0.00,WeatherDisplay:10.37,2013-06-28 11:03:00,
2013-06-28 07:05:00,71.4,57.7,29.73,WNW,288,0.0,0.0,62,0.00,CLR,,0.00,WeatherDisplay:10.37,2013-06-28 11:05:00,
2013-06-28 07:06:00,71.6,57.0,29.73,WNW,288,0.0,0.0,60,0.00,CLR,,0.00,WeatherDisplay:10.37,2013-06-28 11:06:00,
2013-06-28 07:08:00,71.8,56.2,29.72,WNW,288,0.0,0.0,58,0.00,CLR,,0.00,WeatherDisplay:10.37,2013-06-28 11:08:00,
2013-06-28 07:09:00,72.2,56.1,29.73,WNW,288,0.0,0.0,57,0.00,CLR,,0.00,WeatherDisplay:10.37,2013-06-28 11:09:00,
2013-06-28 07:10:00,72.6,56.0,29.72,WNW,288,0.0,0.0,56,0.00,CLR,,0.00,WeatherDisplay:10.37,2013-06-28 11:10:00,
2013-06-28 07:11:00,72.5,55.4,29.72,WNW,288,0.0,0.0,55,0.00,CLR,,0.00,WeatherDisplay:10.37,2013-06-28 11:11:00,
2013-06-28 07:13:00,73.1,53.9,29.73,WNW,288,0.0,0.0,51,0.00,CLR,,0.00,WeatherDisplay:10.37,2013-06-28 11:13:00,
2013-06-28 07:14:00,72.9,52.1,29.73,WNW,288,0.0,0.0,48,0.00,CLR,,0.00,WeatherDisplay:10.37,2013-06-28 11:14:00,
2013-06-28 07:15:00,73.4,53.1,29.73,WNW,288,0.0,0.0,49,0.00,CLR,,0.00,WeatherDisplay:10.37,2013-06-28 11:15:00,
2013-06-28 07:17:00,73.3,53.0,29.73,WNW,288,0.0,0.0,49,0.00,CLR,,0.00,WeatherDisplay:10.37,2013-06-28 11:17:00,
2013-06-28 07:18:00,73.1,53.4,29.73,WNW,288,0.0,0.0,50,0.00,CLR,,0.00,WeatherDisplay:10.37,2013-06-28 11:18:00,
2013-06-28 07:19:00,73.2,54.0,29.73,WNW,288,0.0,0.0,51,0.00,CLR,,0.00,WeatherDisplay:10.37,2013-06-28 11:19:00,
2013-06-28 07:21:00,73.1,54.4,29.72,WNW,288,0.0,0.0,52,0.00,CLR,,0.00,WeatherDisplay:10.37,2013-06-28 11:21:00,
2013-06-28 07:22:00,72.7,54.6,29.72,WNW,288,0.0,0.0,53,0.00,CLR,,0.00,WeatherDisplay:10.37,2013-06-28 11:22:00,
2013-06-28 07:23:00,73.0,55.4,29.73,WNW,288,0.0,0.0,54,0.00,CLR,,0.00,WeatherDisplay:10.37,2013-06-28 11:23:00,
2013-06-28 07:24:00,73.0,55.4,29.73,WNW,288,0.0,0.0,54,0.00,CLR,,0.00,WeatherDisplay:10.37,2013-06-28 11:24:00,
2013-06-28 07:26:00,72.9,55.3,29.73,WNW,288,0.0,0.0,54,0.00,CLR,,0.00,WeatherDisplay:10.37,2013-06-28 11:26:00,
2013-06-28 07:27:00,72.6,55.0,29.73,WNW,288,0.0,0.0,54,0.00,CLR,,0.00,WeatherDisplay:10.37,2013-06-28 11:27:00,
2013-06-28 07:28:00,73.0,53.3,29.72,WNW,288,0.0,0.0,50,0.00,CLR,,0.00,WeatherDisplay:10.37,2013-06-28 11:28:00,
2013-06-28 07:29:00,72.6,52.3,29.72,WNW,288,0.0,0.0,49,0.00,CLR,,0.00,WeatherDisplay:10.37,2013-06-28 11:29:00,
2013-06-28 07:31:00,72.9,53.2,29.72,WNW,288,0.0,0.0,50,0.00,CLR,,0.00,WeatherDisplay:10.37,2013-06-28 11:31:00,
2013-06-28 07:32:00,73.0,52.1,29.72,WNW,288,0.0,0.0,48,0.00,CLR,,0.00,WeatherDisplay:10.37,2013-06-28 11:32:00,
2013-06-28 07:33:00,73.0,50.4,29.72,WNW,288,0.4,0.0,45,0.00,CLR,,0.00,WeatherDisplay:10.37,2013-06-28 11:33:00,
2013-06-28 07:34:00,72.9,49.1,29.72,WNW,288,0.1,2.3,43,0.00,CLR,,0.00,WeatherDisplay:10.37,2013-06-28 11:34:00,
2013-06-28 07:36:00,73.5,49.0,29.72,WNW,288,0.0,0.0,42,0.00,CLR,,0.00,WeatherDisplay:10.37,2013-06-28 11:36:00,
2013-06-28 07:38:00,73.6,49.1,29.72,WNW,288,0.0,0.0,42,0.00,CLR,,0.00,WeatherDisplay:10.37,2013-06-28 11:38:00,
2013-06-28 07:39:00,73.5,47.7,29.72,WNW,288,0.0,0.0,40,0.00,CLR,,0.00,WeatherDisplay:10.37,2013-06-28 11:39:00,
2013-06-28 07:40:00,73.7,48.5,29.72,WNW,288,0.0,0.0,41,0.00,CLR,,0.00,WeatherDisplay:10.37,2013-06-28 11:40:00,
2013-06-28 07:42:00,73.9,48.1,29.73,WNW,288,0.0,0.0,40,0.00,CLR,,0.00,WeatherDisplay:10.37,2013-06-28 11:42:00,
2013-06-28 07:43:00,74.3,48.4,29.73,WNW,288,0.0,0.0,40,0.00,CLR,,0.00,WeatherDisplay:10.37,2013-06-28 11:43:00,
2013-06-28 07:44:00,74.2,48.3,29.72,WNW,288,0.0,0.0,40,0.00,CLR,,0.00,WeatherDisplay:10.37,2013-06-28 11:44:00,
2013-06-28 07:45:00,74.3,49.1,29.73,WNW,288,0.0,0.0,41,0.00,CLR,,0.00,WeatherDisplay:10.37,2013-06-28 11:45:00,
2013-06-28 07:47:00,74.3,48.4,29.72,WNW,288,0.0,0.0,40,0.00,CLR,,0.00,WeatherDisplay:10.37,2013-06-28 11:47:00,
2013-06-28 07:48:00,74.3,48.4,29.72,WNW,288,0.0,0.0,40,0.00,CLR,,0.00,WeatherDisplay:10.37,2013-06-28 11:48:00,
2013-06-28 07:49:00,74.3,48.4,29.72,WNW,288,0.0,0.0,40,0.00,CLR,,0.00,WeatherDisplay:10.37,2013-06-28 11:49:00,
2013-06-28 07:50:00,74.3,48.4,29.72,WNW,288,0.0,0.0,40,0.00,CLR,,0.00,WeatherDisplay:10.37,2013-06-28 11:50:00,
2013-06-28 07:52:00,74.3,48.4,29.72,WNW,288,0.0,0.0,40,0.00,CLR,,0.00,WeatherDisplay:10.37,2013-06-28 11:52:00,
2013-06-28 07:53:00,74.3,49.1,29.72,WNW,288,0.0,0.0,41,0.00,CLR,,0.00,WeatherDisplay:10.37,2013-06-28 11:53:00,
2013-06-28 07:55:00,74.3,49.7,29.73,WNW,288,0.0,0.0,42,0.00,CLR,,0.00,WeatherDisplay:10.37,2013-06-28 11:55:00,
2013-06-28 07:56:00,74.3,48.4,29.72,WNW,288,0.0,0.0,40,0.00,CLR,,0.00,WeatherDisplay:10.37,2013-06-28 11:56:00,
2013-06-28 07:57:00,74.4,47.1,29.73,WNW,288,0.0,0.0,38,0.00,CLR,,0.00,WeatherDisplay:10.37,2013-06-28 11:57:00,
2013-06-28 07:58:00,74.3,47.0,29.73,WNW,288,0.0,0.0,38,0.00,CLR,,0.00,WeatherDisplay:10.37,2013-06-28 11:58:00,
2013-06-28 08:00:00,74.3,47.7,29.73,WNW,288,0.0,0.0,39,0.00,CLR,,0.00,WeatherDisplay:10.37,2013-06-28 12:00:00,
2013-06-28 08:01:00,74.3,47.7,29.72,WNW,288,0.0,0.0,39,0.00,CLR,,0.00,WeatherDisplay:10.37,2013-06-28 12:01:00,
2013-06-28 08:02:00,74.2,47.0,29.72,WNW,288,0.0,0.0,38,0.00,CLR,,0.00,WeatherDisplay:10.37,2013-06-28 12:02:00,
2013-06-28 08:03:00,74.4,47.1,29.72,WNW,288,0.0,0.0,38,0.00,CLR,,0.00,WeatherDisplay:10.37,2013-06-28 12:03:00,
2013-06-28 08:05:00,74.4,48.5,29.72,WNW,288,0.0,0.0,40,0.00,CLR,,0.00,WeatherDisplay:10.37,2013-06-28 12:05:00,
2013-06-28 08:06:00,74.3,49.7,29.72,WNW,288,0.0,0.0,42,0.00,CLR,,0.00,WeatherDisplay:10.37,2013-06-28 12:06:00,
2013-06-28 08:07:00,74.4,50.4,29.72,WNW,288,0.0,0.0,43,0.00,CLR,,0.00,WeatherDisplay:10.37,2013-06-28 12:07:00,
2013-06-28 08:08:00,74.4,50.4,29.72,WNW,288,0.0,0.0,43,0.00,CLR,,0.00,WeatherDisplay:10.37,2013-06-28 12:08:00,
2013-06-28 08:10:00,74.3,50.4,29.73,WNW,288,0.0,0.0,43,0.00,CLR,,0.00,WeatherDisplay:10.37,2013-06-28 12:10:00,
2013-06-28 08:11:00,74.8,50.2,29.73,WNW,288,0.0,0.0,42,0.00,CLR,,0.00,WeatherDisplay:10.37,2013-06-28 12:11:00,
2013-06-28 08:12:00,74.7,50.1,29.73,WNW,288,0.0,0.0,42,0.00,CLR,,0.00,WeatherDisplay:10.37,2013-06-28 12:12:00,
2013-06-28 08:13:00,74.8,49.5,29.73,WNW,288,0.0,0.0,41,0.00,CLR,,0.00,WeatherDisplay:10.37,2013-06-28 12:13:00,
2013-06-28 08:15:00,75.2,47.8,29.73,WNW,288,0.0,0.0,38,0.00,CLR,,0.00,WeatherDisplay:10.37,2013-06-28 12:15:00,
2013-06-28 08:16:00,75.2,47.1,29.73,WNW,288,0.0,0.0,37,0.00,CLR,,0.00,WeatherDisplay:10.37,2013-06-28 12:16:00,
2013-06-28 08:18:00,75.1,46.3,29.73,WNW,288,0.0,0.0,36,0.00,CLR,,0.00,WeatherDisplay:10.37,2013-06-28 12:18:00,
2013-06-28 08:19:00,75.4,46.6,29.73,WNW,288,0.0,0.0,36,0.00,CLR,,0.00,WeatherDisplay:10.37,2013-06-28 12:19:00,
2013-06-28 08:20:00,75.3,46.5,29.73,WNW,288,0.0,0.0,36,0.00,CLR,,0.00,WeatherDisplay:10.37,2013-06-28 12:20:00,
2013-06-28 08:21:00,75.4,46.6,29.73,WNW,288,0.0,0.0,36,0.00,CLR,,0.00,WeatherDisplay:10.37,2013-06-28 12:21:00,
2013-06-28 08:22:00,75.7,46.8,29.73,WNW,288,0.0,0.0,36,0.00,CLR,,0.00,WeatherDisplay:10.37,2013-06-28 12:22:00,
2013-06-28 08:23:00,76.0,46.4,29.73,WNW,288,0.0,0.0,35,0.00,CLR,,0.00,WeatherDisplay:10.37,2013-06-28 12:23:00,
2013-06-28 08:24:00,75.8,44.6,29.73,WNW,288,0.0,0.0,33,0.00,CLR,,0.00,WeatherDisplay:10.37,2013-06-28 12:24:00,
2013-06-28 08:25:00,76.1,44.1,29.73,WNW,288,0.0,0.0,32,0.00,CLR,,0.00,WeatherDisplay:10.37,2013-06-28 12:25:00,
2013-06-28 08:26:00,76.2,44.2,29.73,WNW,288,0.0,0.0,32,0.00,CLR,,0.00,WeatherDisplay:10.37,2013-06-28 12:26:00,
2013-06-28 08:27:00,76.3,44.3,29.73,WNW,288,0.0,0.0,32,0.00,CLR,,0.00,WeatherDisplay:10.37,2013-06-28 12:27:00,
2013-06-28 08:28:00,75.9,42.2,29.73,WNW,288,0.0,0.0,30,0.00,CLR,,0.00,WeatherDisplay:10.37,2013-06-28 12:28:00,
2013-06-28 08:29:00,76.1,42.4,29.73,WNW,288,0.0,0.0,30,0.00,CLR,,0.00,WeatherDisplay:10.37,2013-06-28 12:29:00,
2013-06-28 08:31:00,76.0,42.3,29.72,WNW,288,0.0,0.0,30,0.00,CLR,,0.00,WeatherDisplay:10.37,2013-06-28 12:31:00,
2013-06-28 08:33:00,76.1,42.4,29.72,WNW,288,0.0,0.0,30,0.00,CLR,,0.00,WeatherDisplay:10.37,2013-06-28 12:33:00,
2013-06-28 08:34:00,75.8,42.1,29.72,WNW,288,0.0,0.0,30,0.00,CLR,,0.00,WeatherDisplay:10.37,2013-06-28 12:34:00,
2013-06-28 08:36:00,75.9,44.7,29.72,WNW,288,0.0,0.0,33,0.00,CLR,,0.00,WeatherDisplay:10.37,2013-06-28 12:36:00,
2013-06-28 08:38:00,75.8,44.6,29.72,WNW,288,0.0,0.0,33,0.00,CLR,,0.00,WeatherDisplay:10.37,2013-06-28 12:38:00,
2013-06-28 08:39:00,75.9,44.7,29.72,WNW,288,0.0,0.0,33,0.00,CLR,,0.00,WeatherDisplay:10.37,2013-06-28 12:39:00,
2013-06-28 08:40:00,75.9,44.7,29.72,WNW,288,0.0,0.0,33,0.00,CLR,,0.00,WeatherDisplay:10.37,2013-06-28 12:40:00,
2013-06-28 08:41:00,75.9,45.5,29.72,WNW,288,0.0,0.0,34,0.00,CLR,,0.00,WeatherDisplay:10.37,2013-06-28 12:41:00,
2013-06-28 08:42:00,76.0,44.8,29.72,WNW,288,0.0,0.0,33,0.00,CLR,,0.00,WeatherDisplay:10.37,2013-06-28 12:42:00,
2013-06-28 08:43:00,76.3,45.1,29.72,WNW,288,0.0,0.0,33,0.00,CLR,,0.00,WeatherDisplay:10.37,2013-06-28 12:43:00,
2013-06-28 08:44:00,76.3,43.4,29.72,WNW,288,0.0,0.0,31,0.00,CLR,,0.00,WeatherDisplay:10.37,2013-06-28 12:44:00,
2013-06-28 08:45:00,76.3,42.6,29.72,WNW,288,0.0,0.0,30,0.00,CLR,,0.00,WeatherDisplay:10.37,2013-06-28 12:45:00,
2013-06-28 08:46:00,76.3,42.6,29.72,WNW,288,0.0,0.0,30,0.00,CLR,,0.00,WeatherDisplay:10.37,2013-06-28 12:46:00,
2013-06-28 08:47:00,76.3,41.7,29.72,WNW,288,0.0,0.0,29,0.00,CLR,,0.00,WeatherDisplay:10.37,2013-06-28 12:47:00,
2013-06-28 08:49:00,76.7,38.2,29.72,WNW,288,0.0,0.0,25,0.00,CLR,,0.00,WeatherDisplay:10.37,2013-06-28 12:49:00,
2013-06-28 08:50:00,76.5,37.0,29.72,WNW,288,0.0,0.0,24,0.00,CLR,,0.00,WeatherDisplay:10.37,2013-06-28 12:50:00,
2013-06-28 08:51:00,77.0,37.4,29.72,WNW,288,0.0,0.0,24,0.00,CLR,,0.00,WeatherDisplay:10.37,2013-06-28 12:51:00,
2013-06-28 08:52:00,77.1,37.5,29.72,WNW,288,0.0,0.0,24,0.00,CLR,,0.00,WeatherDisplay:10.37,2013-06-28 12:52:00,
2013-06-28 08:54:00,77.9,34.8,29.72,WNW,288,0.0,0.0,21,0.00,CLR,,0.00,WeatherDisplay:10.37,2013-06-28 12:54:00,
2013-06-28 08:55:00,78.0,29.6,29.72,WNW,288,0.0,0.0,17,0.00,CLR,,0.00,WeatherDisplay:10.37,2013-06-28 12:55:00,
2013-06-28 08:56:00,77.2,30.4,29.72,WNW,288,0.0,0.0,18,0.00,CLR,,0.00,WeatherDisplay:10.37,2013-06-28 12:56:00,
2013-06-28 08:57:00,77.5,29.2,29.72,WNW,288,0.0,0.0,17,0.00,CLR,,0.00,WeatherDisplay:10.37,2013-06-28 12:57:00,
2013-06-28 08:59:00,78.1,31.1,29.72,WNW,288,0.0,0.0,18,0.00,CLR,,0.00,WeatherDisplay:10.37,2013-06-28 12:59:00,
2013-06-28 09:00:00,77.9,29.5,29.72,WNW,288,0.0,0.0,17,0.00,CLR,,0.00,WeatherDisplay:10.37,2013-06-28 13:00:00,
2013-06-28 09:01:00,78.5,28.5,29.72,WNW,288,0.0,0.0,16,0.00,CLR,,0.00,WeatherDisplay:10.37,2013-06-28 13:01:00,
2013-06-28 09:02:00,78.7,28.7,29.72,WNW,288,0.0,0.0,16,0.00,CLR,,0.00,WeatherDisplay:10.37,2013-06-28 13:02:00,
2013-06-28 09:04:00,78.5,25.3,29.72,WNW,288,0.0,0.0,14,0.00,CLR,,0.00,WeatherDisplay:10.37,2013-06-28 13:04:00,
2013-06-28 09:05:00,79.0,23.9,29.72,WNW,288,0.0,0.0,13,0.00,CLR,,0.00,WeatherDisplay:10.37,2013-06-28 13:05:00,
2013-06-28 09:06:00,78.8,23.8,29.72,WNW,288,0.0,0.0,13,0.00,CLR,,0.00,WeatherDisplay:10.37,2013-06-28 13:06:00,
2013-06-28 09:07:00,78.3,25.1,29.72,WNW,288,0.0,0.0,14,0.00,CLR,,0.00,WeatherDisplay:10.37,2013-06-28 13:07:00,
2013-06-28 09:09:00,79.4,26.0,29.72,WNW,288,0.0,0.0,14,0.00,CLR,,0.00,WeatherDisplay:10.37,2013-06-28 13:09:00,
2013-06-28 09:11:00,79.0,25.7,29.72,WNW,288,0.0,0.0,14,0.00,CLR,,0.00,WeatherDisplay:10.37,2013-06-28 13:11:00,
2013-06-28 09:12:00,78.9,21.9,29.72,WNW,288,0.0,0.0,12,0.00,CLR,,0.00,WeatherDisplay:10.37,2013-06-28 13:12:00,
2013-06-28 09:13:00,79.7,22.6,29.72,SSW,203,0.2,3.4,12,0.00,CLR,,0.00,WeatherDisplay:10.37,2013-06-28 13:13:00,
2013-06-28 09:14:00,78.4,21.5,29.72,South,182,3.0,4.6,12,0.00,CLR,,0.00,WeatherDisplay:10.37,2013-06-28 13:14:00,
2013-06-28 09:16:00,80.6,23.3,29.72,South,182,0.0,1.1,12,0.00,CLR,,0.00,WeatherDisplay:10.37,2013-06-28 13:16:00,
2013-06-28 09:17:00,80.4,25.0,29.72,South,182,0.0,0.0,13,0.00,CLR,,0.00,WeatherDisplay:10.37,2013-06-28 13:17:00,
2013-06-28 09:18:00,79.4,22.3,29.72,WSW,253,2.7,4.5,12,0.00,CLR,,0.00,WeatherDisplay:10.37,2013-06-28 13:18:00,
2013-06-28 09:19:00,78.9,27.3,29.72,West,280,0.3,3.0,15,0.00,CLR,,0.00,WeatherDisplay:10.37,2013-06-28 13:19:00,
2013-06-28 09:21:00,79.2,25.9,29.72,WNW,291,0.0,3.5,14,0.00,CLR,,0.00,WeatherDisplay:10.37,2013-06-28 13:21:00,
2013-06-28 09:22:00,77.9,26.5,29.72,West,272,0.5,4.8,15,0.00,CLR,,0.00,WeatherDisplay:10.37,2013-06-28 13:22:00,
2013-06-28 09:23:00,78.9,25.6,29.72,West,261,0.0,0.0,14,0.00,CLR,,0.00,WeatherDisplay:10.37,2013-06-28 13:23:00,
2013-06-28 09:24:00,77.8,24.8,29.72,WSW,253,0.8,7.3,14,0.00,CLR,,0.00,WeatherDisplay:10.37,2013-06-28 13:24:00,
2013-06-28 09:26:00,78.2,28.3,29.72,West,278,1.1,8.1,16,0.00,CLR,,0.00,WeatherDisplay:10.37,2013-06-28 13:26:00,
2013-06-28 09:27:00,78.2,28.3,29.72,WNW,285,2.6,4.6,16,0.00,CLR,,0.00,WeatherDisplay:10.37,2013-06-28 13:27:00,
2013-06-28 09:28:00,78.7,28.7,29.72,WNW,296,3.5,6.9,16,0.00,CLR,,0.00,WeatherDisplay:10.37,2013-06-28 13:28:00,
2013-06-28 09:30:00,77.1,27.4,29.72,NW,322,3.8,5.8,16,0.00,CLR,,0.00,WeatherDisplay:10.37,2013-06-28 13:30:00,
2013-06-28 09:31:00,77.8,29.5,29.72,WNW,296,2.1,4.6,17,0.00,CLR,,0.00,WeatherDisplay:10.37,2013-06-28 13:31:00,
2013-06-28 09:32:00,77.8,30.9,29.72,WNW,296,2.2,4.6,18,0.00,CLR,,0.00,WeatherDisplay:10.37,2013-06-28 13:32:00,
2013-06-28 09:33:00,78.1,29.7,29.72,WNW,296,0.0,0.0,17,0.00,CLR,,0.00,WeatherDisplay:10.37,2013-06-28 13:33:00,
2013-06-28 09:35:00,78.2,31.2,29.72,NW,318,2.0,9.2,18,0.00,CLR,,0.00,WeatherDisplay:10.37,2013-06-28 13:35:00,
2013-06-28 09:37:00,78.0,31.0,29.72,West,272,2.5,6.9,18,0.00,CLR,,0.00,WeatherDisplay:10.37,2013-06-28 13:37:00,
2013-06-28 09:39:00,77.8,32.2,29.72,West,272,0.0,0.0,19,0.00,CLR,,0.00,WeatherDisplay:10.37,2013-06-28 13:39:00,
2013-06-28 09:40:00,78.0,31.0,29.72,WSW,248,1.7,4.6,18,0.00,CLR,,0.00,WeatherDisplay:10.37,2013-06-28 13:40:00,
2013-06-28 09:42:00,77.7,27.9,29.72,WNW,291,5.7,8.1,16,0.00,CLR,,0.00,WeatherDisplay:10.37,2013-06-28 13:42:00,
2013-06-28 09:43:00,77.9,28.1,29.72,West,281,5.3,9.2,16,0.00,CLR,,0.00,WeatherDisplay:10.37,2013-06-28 13:43:00,
2013-06-28 09:44:00,77.2,27.5,29.72,WNW,292,2.2,6.9,16,0.00,CLR,,0.00,WeatherDisplay:10.37,2013-06-28 13:44:00,
2013-06-28 09:45:00,78.5,27.0,29.72,NNW,343,2.8,9.2,15,0.00,CLR,,0.00,WeatherDisplay:10.37,2013-06-28 13:45:00,
2013-06-28 09:47:00,77.4,26.1,29.72,WSW,246,3.1,8.1,15,0.00,CLR,,0.00,WeatherDisplay:10.37,2013-06-28 13:47:00,
2013-06-28 09:48:00,78.1,28.2,29.71,SW,223,1.2,8.1,16,0.00,CLR,,0.00,WeatherDisplay:10.37,2013-06-28 13:48:00,
2013-06-28 09:49:00,78.1,28.2,29.71,SW,223,0.0,8.1,16,0.00,CLR,,0.00,WeatherDisplay:10.37,2013-06-28 13:49:00,
2013-06-28 09:51:00,78.9,25.6,29.71,NW,304,2.6,6.9,14,0.00,CLR,,0.00,WeatherDisplay:10.37,2013-06-28 13:51:00,
2013-06-28 09:52:00,78.7,21.8,29.71,WSW,240,4.4,6.9,12,0.00,CLR,,0.00,WeatherDisplay:10.37,2013-06-28 13:52:00,
2013-06-28 09:53:00,78.7,21.8,29.71,SW,234,4.8,9.9,12,0.00,CLR,,0.00,WeatherDisplay:10.37,2013-06-28 13:53:00,
2013-06-28 09:54:00,78.4,23.5,29.71,SW,223,7.0,10.4,13,0.00,CLR,,0.00,WeatherDisplay:10.37,2013-06-28 13:54:00,
2013-06-28 09:56:00,78.8,21.9,29.71,NW,308,4.2,9.3,12,0.00,CLR,,0.00,WeatherDisplay:10.37,2013-06-28 13:56:00,
2013-06-28 09:57:00,78.2,21.4,29.71,NW,306,3.6,11.5,12,0.00,CLR,,0.00,WeatherDisplay:10.37,2013-06-28 13:57:00,
2013-06-28 09:58:00,78.8,23.8,29.71,WNW,291,3.9,6.9,13,0.00,CLR,,0.00,WeatherDisplay:10.37,2013-06-28 13:58:00,
2013-06-28 09:59:00,78.7,23.7,29.71,WSW,257,3.9,6.9,13,0.00,CLR,,0.00,WeatherDisplay:10.37,2013-06-28 13:59:00,
2013-06-28 10:01:00,80.2,23.0,29.71,West,267,5.7,9.2,12,0.00,CLR,,0.00,WeatherDisplay:10.37,2013-06-28 14:01:00,
2013-06-28 10:02:00,80.0,20.7,29.71,WSW,244,4.4,9.2,11,0.00,CLR,,0.00,WeatherDisplay:10.37,2013-06-28 14:02:00,
2013-06-28 10:03:00,80.2,20.9,29.71,SW,232,0.3,4.6,11,0.00,CLR,,0.00,WeatherDisplay:10.37,2013-06-28 14:03:00,
2013-06-28 10:04:00,80.7,21.3,29.71,SW,232,0.0,4.6,11,0.00,CLR,,0.00,WeatherDisplay:10.37,2013-06-28 14:04:00,
2013-06-28 10:06:00,80.1,18.6,29.71,NW,319,2.0,5.8,10,0.00,CLR,,0.00,WeatherDisplay:10.37,2013-06-28 14:06:00,
2013-06-28 10:07:00,79.4,15.6,29.71,NNW,328,5.7,10.4,9,0.00,CLR,,0.00,WeatherDisplay:10.37,2013-06-28 14:07:00,
2013-06-28 10:08:00,79.7,18.3,29.71,West,274,3.8,5.8,10,0.00,CLR,,0.00,WeatherDisplay:10.37,2013-06-28 14:08:00,
2013-06-28 10:09:00,81.2,21.7,29.71,West,274,1.4,5.8,11,0.00,CLR,,0.00,WeatherDisplay:10.37,2013-06-28 14:09:00,
2013-06-28 10:12:00,80.4,21.0,29.71,WNW,294,2.5,6.9,11,0.00,CLR,,0.00,WeatherDisplay:10.37,2013-06-28 14:12:00,
2013-06-28 10:14:00,79.8,18.3,29.71,WSW,240,7.8,12.7,10,0.00,CLR,,0.00,WeatherDisplay:10.37,2013-06-28 14:14:00,
2013-06-28 10:17:00,79.3,20.2,29.71,South,184,3.9,11.5,11,0.00,CLR,,0.00,WeatherDisplay:10.37,2013-06-28 14:17:00,
2013-06-28 10:19:00,80.0,20.7,29.71,NW,323,7.1,10.6,11,0.00,CLR,,0.00,WeatherDisplay:10.37,2013-06-28 14:19:00,
2013-06-28 10:23:00,80.0,22.8,29.71,WNW,295,3.4,9.2,12,0.00,CLR,,0.00,WeatherDisplay:10.37,2013-06-28 14:23:00,
2013-06-28 10:24:00,80.5,21.1,29.71,WNW,299,3.8,10.4,11,0.00,CLR,,0.00,WeatherDisplay:10.37,2013-06-28 14:24:00,
2013-06-28 10:25:00,79.4,20.3,29.71,WNW,284,1.4,10.4,11,0.00,CLR,,0.00,WeatherDisplay:10.37,2013-06-28 14:25:00,
2013-06-28 10:28:00,79.8,22.6,29.70,WSW,240,1.5,9.2,12,0.00,CLR,,0.00,WeatherDisplay:10.37,2013-06-28 14:28:00,
2013-06-28 10:29:00,80.4,16.4,29.71,SSW,192,4.5,11.5,9,0.00,CLR,,0.00,WeatherDisplay:10.37,2013-06-28 14:29:00,
2013-06-28 10:30:00,80.1,18.6,29.70,NW,322,7.3,11.5,10,0.00,CLR,,0.00,WeatherDisplay:10.37,2013-06-28 14:30:00,
2013-06-28 10:33:00,80.3,13.6,29.71,WNW,285,7.1,9.2,8,0.00,CLR,,0.00,WeatherDisplay:10.37,2013-06-28 14:33:00,
2013-06-28 10:34:00,81.0,16.8,29.70,NW,320,2.8,8.1,9,0.00,CLR,,0.00,WeatherDisplay:10.37,2013-06-28 14:34:00,
2013-06-28 10:35:00,80.8,14.0,29.70,West,277,4.0,8.1,8,0.00,CLR,,0.00,WeatherDisplay:10.37,2013-06-28 14:35:00,
2013-06-28 10:38:00,81.3,19.5,29.70,WNW,289,5.8,5.8,10,0.00,CLR,,0.00,WeatherDisplay:10.37,2013-06-28 14:38:00,
2013-06-28 10:39:00,80.0,16.1,29.70,West,277,4.8,9.6,9,0.00,CLR,,0.00,WeatherDisplay:10.37,2013-06-28 14:39:00,
2013-06-28 10:40:00,81.1,14.2,29.70,WNW,288,6.7,8.4,8,0.00,CLR,,0.00,WeatherDisplay:10.37,2013-06-28 14:40:00,
2013-06-28 10:43:00,81.7,11.6,29.70,WSW,244,4.3,15.6,7,0.00,CLR,,0.00,WeatherDisplay:10.37,2013-06-28 14:43:00,
2013-06-28 10:45:00,80.0,13.4,29.71,SSW,202,6.1,11.5,8,0.00,CLR,,0.00,WeatherDisplay:10.37,2013-06-28 14:45:00,
2013-06-28 10:48:00,81.4,14.4,29.71,SW,219,7.0,16.1,8,0.00,CLR,,0.00,WeatherDisplay:10.37,2013-06-28 14:48:00,
2013-06-28 10:49:00,79.7,15.8,29.71,SW,229,8.8,16.1,9,0.00,CLR,,0.00,WeatherDisplay:10.37,2013-06-28 14:49:00,
2013-06-28 10:50:00,79.4,15.6,29.70,SW,224,6.5,12.7,9,0.00,CLR,,0.00,WeatherDisplay:10.37,2013-06-28 14:50:00,
2013-06-28 10:51:00,80.2,16.2,29.71,SW,233,5.7,11.5,9,0.00,CLR,,0.00,WeatherDisplay:10.37,2013-06-28 14:51:00,
2013-06-28 10:54:00,79.5,13.0,29.71,NW,325,7.2,10.4,8,0.00,CLR,,0.00,WeatherDisplay:10.37,2013-06-28 14:54:00,
2013-06-28 10:55:00,80.4,21.0,29.70,WNW,289,4.5,9.2,11,0.00,CLR,,0.00,WeatherDisplay:10.37,2013-06-28 14:55:00,
2013-06-28 10:56:00,79.9,18.4,29.70,NW,316,4.3,9.2,10,0.00,CLR,,0.00,WeatherDisplay:10.37,2013-06-28 14:56:00,
2013-06-28 10:59:00,80.2,16.2,29.70,West,267,6.7,12.7,9,0.00,CLR,,0.00,WeatherDisplay:10.37,2013-06-28 14:59:00,
2013-06-28 11:00:00,80.2,16.2,29.70,NW,305,3.5,6.9,9,0.00,CLR,,0.00,WeatherDisplay:10.37,2013-06-28 15:00:00,
2013-06-28 11:01:00,80.3,16.3,29.70,NW,309,3.2,6.9,9,0.00,CLR,,0.00,WeatherDisplay:10.37,2013-06-28 15:01:00,
2013-06-28 11:04:00,80.0,16.1,29.70,SSW,212,2.7,10.4,9,0.00,CLR,,0.00,WeatherDisplay:10.37,2013-06-28 15:04:00,
2013-06-28 11:05:00,80.3,13.6,29.70,WNW,292,4.5,11.3,8,0.00,CLR,,0.00,WeatherDisplay:10.37,2013-06-28 15:05:00,
2013-06-28 11:06:00,80.6,13.8,29.70,WSW,258,6.5,12.0,8,0.00,CLR,,0.00,WeatherDisplay:10.37,2013-06-28 15:06:00,
2013-06-28 11:09:00,80.6,10.8,29.70,WNW,289,9.6,15.0,7,0.00,CLR,,0.00,WeatherDisplay:10.37,2013-06-28 15:09:00,
2013-06-28 11:10:00,80.2,16.2,29.70,West,275,7.4,15.0,9,0.00,CLR,,0.00,WeatherDisplay:10.37,2013-06-28 15:10:00,
2013-06-28 11:11:00,81.0,16.8,29.70,North,360,7.7,11.5,9,0.00,CLR,,0.00,WeatherDisplay:10.37,2013-06-28 15:11:00,
2013-06-28 11:12:00,80.4,18.8,29.70,WNW,288,4.9,18.4,10,0.00,CLR,,0.00,WeatherDisplay:10.37,2013-06-28 15:12:00,
2013-06-28 11:14:00,81.3,11.3,29.70,NW,315,3.6,8.7,7,0.00,CLR,,0.00,WeatherDisplay:10.37,2013-06-28 15:14:00,
2013-06-28 11:15:00,82.2,15.0,29.70,WNW,299,7.5,8.4,8,0.00,CLR,,0.00,WeatherDisplay:10.37,2013-06-28 15:15:00,
2013-06-28 11:16:00,82.0,14.8,29.70,SW,233,8.6,10.4,8,0.00,CLR,,0.00,WeatherDisplay:10.37,2013-06-28 15:16:00,
2013-06-28 11:17:00,81.4,11.4,29.70,WNW,285,4.5,15.0,7,0.00,CLR,,0.00,WeatherDisplay:10.37,2013-06-28 15:17:00,
2013-06-28 11:20:00,80.8,10.9,29.70,NW,311,7.5,11.5,7,0.00,CLR,,0.00,WeatherDisplay:10.37,2013-06-28 15:20:00,
2013-06-28 11:21:00,81.0,14.1,29.70,West,270,7.5,12.7,8,0.00,CLR,,0.00,WeatherDisplay:10.37,2013-06-28 15:21:00,
2013-06-28 11:22:00,81.7,14.6,29.70,NNW,337,3.9,12.7,8,0.00,CLR,,0.00,WeatherDisplay:10.37,2013-06-28 15:22:00,
2013-06-28 11:25:00,82.1,11.9,29.69,WNW,292,3.9,16.1,7,0.00,CLR,,0.00,WeatherDisplay:10.37,2013-06-28 15:25:00,
2013-06-28 11:27:00,81.8,11.7,29.69,WNW,288,1.0,3.2,7,0.00,CLR,,0.00,WeatherDisplay:10.37,2013-06-28 15:27:00,
2013-06-28 11:30:00,82.3,8.6,29.69,WNW,288,8.5,10.4,6,0.00,CLR,,0.00,WeatherDisplay:10.37,2013-06-28 15:30:00,
2013-06-28 11:31:00,81.4,11.4,29.69,WNW,301,9.1,10.4,7,0.00,CLR,,0.00,WeatherDisplay:10.37,2013-06-28 15:31:00,
2013-06-28 11:32:00,82.5,15.2,29.69,NW,308,5.6,12.7,8,0.00,CLR,,0.00,WeatherDisplay:10.37,2013-06-28 15:32:00,
2013-06-28 11:35:00,82.4,8.6,29.69,NW,309,7.5,14.3,6,0.00,CLR,,0.00,WeatherDisplay:10.37,2013-06-28 15:35:00,
2013-06-28 11:36:00,82.4,8.6,29.69,NW,309,7.5,14.3,6,0.00,CLR,,0.00,WeatherDisplay:10.37,2013-06-28 15:36:00,
2013-06-28 11:37:00,82.7,12.3,29.69,West,270,6.8,9.4,7,0.00,CLR,,0.00,WeatherDisplay:10.37,2013-06-28 15:37:00,
2013-06-28 11:41:00,81.1,7.7,29.69,WNW,288,7.5,9.2,6,0.00,CLR,,0.00,WeatherDisplay:10.37,2013-06-28 15:41:00,
2013-06-28 11:42:00,82.4,8.6,29.69,WSW,254,8.8,15.0,6,0.00,CLR,,0.00,WeatherDisplay:10.37,2013-06-28 15:42:00,
2013-06-28 11:43:00,82.3,8.6,29.69,WNW,284,8.3,15.0,6,0.00,CLR,,0.00,WeatherDisplay:10.37,2013-06-28 15:43:00,
2013-06-28 11:46:00,81.4,11.4,29.69,NNW,328,0.0,10.4,7,0.00,CLR,,0.00,WeatherDisplay:10.37,2013-06-28 15:46:00,
2013-06-28 11:47:00,82.5,8.7,29.69,West,265,4.9,6.9,6,0.00,CLR,,0.00,WeatherDisplay:10.37,2013-06-28 15:47:00,
2013-06-28 11:48:00,82.4,8.6,29.69,SSE,150,3.7,9.2,6,0.00,CLR,,0.00,WeatherDisplay:10.37,2013-06-28 15:48:00,
2013-06-28 11:51:00,82.2,8.5,29.69,West,265,3.0,11.5,6,0.00,CLR,,0.00,WeatherDisplay:10.37,2013-06-28 15:51:00,
2013-06-28 11:52:00,81.0,7.6,29.69,NW,316,8.3,9.2,6,0.00,CLR,,0.00,WeatherDisplay:10.37,2013-06-28 15:52:00,
2013-06-28 11:53:00,81.6,11.5,29.69,SW,223,7.9,9.2,7,0.00,CLR,,0.00,WeatherDisplay:10.37,2013-06-28 15:53:00,
2013-06-28 11:54:00,81.3,7.8,29.69,West,270,4.3,11.5,6,0.00,CLR,,0.00,WeatherDisplay:10.37,2013-06-28 15:54:00,
2013-06-28 11:56:00,81.5,11.4,29.69,West,264,5.9,9.3,7,0.00,CLR,,0.00,WeatherDisplay:10.37,2013-06-28 15:56:00,
2013-06-28 11:57:00,81.3,11.3,29.69,WNW,288,7.7,16.1,7,0.00,CLR,,0.00,WeatherDisplay:10.37,2013-06-28 15:57:00,
2013-06-28 11:58:00,81.3,7.8,29.69,North,360,6.9,16.1,6,0.00,CLR,,0.00,WeatherDisplay:10.37,2013-06-28 15:58:00,
2013-06-28 11:59:00,80.5,10.7,29.70,SW,227,6.2,9.2,7,0.00,CLR,,0.00,WeatherDisplay:10.37,2013-06-28 15:59:00,
2013-06-28 12:01:00,81.4,7.9,29.70,WSW,243,4.8,11.3,6,0.00,CLR,,0.00,WeatherDisplay:10.37,2013-06-28 16:01:00,
2013-06-28 12:03:00,82.4,8.6,29.69,WSW,244,10.0,17.3,6,0.00,CLR,,0.00,WeatherDisplay:10.37,2013-06-28 16:03:00,
2013-06-28 12:04:00,82.4,8.6,29.69,WNW,294,7.9,13.8,6,0.00,CLR,,0.00,WeatherDisplay:10.37,2013-06-28 16:04:00,
2013-06-28 12:06:00,83.0,12.5,29.69,NW,313,4.0,10.4,7,0.00,CLR,,0.00,WeatherDisplay:10.37,2013-06-28 16:06:00,
2013-06-28 12:07:00,83.0,12.5,29.69,NW,312,4.2,10.4,7,0.00,CLR,,0.00,WeatherDisplay:10.37,2013-06-28 16:07:00,
2013-06-28 12:08:00,82.5,8.7,29.69,NW,304,5.8,9.2,6,0.00,CLR,,0.00,WeatherDisplay:10.37,2013-06-28 16:08:00,
2013-06-28 12:10:00,83.4,9.4,29.69,SW,224,8.9,18.4,6,0.00,CLR,,0.00,WeatherDisplay:10.37,2013-06-28 16:10:00,
2013-06-28 12:11:00,82.6,8.8,29.69,WSW,250,4.2,9.2,6,0.00,CLR,,0.00,WeatherDisplay:10.37,2013-06-28 16:11:00,
2013-06-28 12:12:00,82.6,8.8,29.69,WSW,244,4.3,9.2,6,0.00,CLR,,0.00,WeatherDisplay:10.37,2013-06-28 16:12:00,
2013-06-28 12:13:00,82.9,9.0,29.69,NNW,329,8.6,11.0,6,0.00,CLR,,0.00,WeatherDisplay:10.37,2013-06-28 16:13:00,
2013-06-28 12:15:00,82.7,8.9,29.69,NW,308,5.6,10.4,6,0.00,CLR,,0.00,WeatherDisplay:10.37,2013-06-28 16:15:00,
2013-06-28 12:17:00,84.0,9.8,29.69,West,260,8.6,11.5,6,0.00,CLR,,0.00,WeatherDisplay:10.37,2013-06-28 16:17:00,
2013-06-28 12:18:00,82.7,8.9,29.69,West,280,9.0,15.9,6,0.00,CLR,,0.00,WeatherDisplay:10.37,2013-06-28 16:18:00,
2013-06-28 12:20:00,82.8,8.9,29.69,SW,222,5.8,16.1,6,0.00,CLR,,0.00,WeatherDisplay:10.37,2013-06-28 16:20:00,
2013-06-28 12:22:00,84.9,6.4,29.69,NNW,342,1.5,9.6,5,0.00,CLR,,0.00,WeatherDisplay:10.37,2013-06-28 16:22:00,
2013-06-28 12:23:00,85.0,10.5,29.69,WNW,299,7.9,11.5,6,0.00,CLR,,0.00,WeatherDisplay:10.37,2013-06-28 16:23:00,
2013-06-28 12:25:00,85.1,10.6,29.69,NNW,328,7.2,11.5,6,0.00,CLR,,0.00,WeatherDisplay:10.37,2013-06-28 16:25:00,
2013-06-28 12:27:00,85.2,14.1,29.69,WNW,284,6.6,10.4,7,0.00,CLR,,0.00,WeatherDisplay:10.37,2013-06-28 16:27:00,
2013-06-28 12:28:00,85.9,7.1,29.69,NW,319,8.9,12.7,5,0.00,CLR,,0.00,WeatherDisplay:10.37,2013-06-28 16:28:00,
2013-06-28 12:30:00,85.5,10.9,29.69,NW,312,7.2,10.4,6,0.00,CLR,,0.00,WeatherDisplay:10.37,2013-06-28 16:30:00,
2013-06-28 12:32:00,84.7,10.3,29.69,SSW,208,8.4,12.7,6,0.00,CLR,,0.00,WeatherDisplay:10.37,2013-06-28 16:32:00,
2013-06-28 12:33:00,86.4,11.5,29.69,NW,313,8.7,15.0,6,0.00,CLR,,0.00,WeatherDisplay:10.37,2013-06-28 16:33:00,
2013-06-28 12:34:00,86.4,11.5,29.69,WSW,240,9.9,16.9,6,0.00,CLR,,0.00,WeatherDisplay:10.37,2013-06-28 16:34:00,
2013-06-28 12:35:00,86.9,7.8,29.69,NW,304,6.0,17.3,5,0.00,CLR,,0.00,WeatherDisplay:10.37,2013-06-28 16:35:00,
2013-06-28 12:37:00,86.1,7.2,29.69,WNW,301,8.7,15.0,5,0.00,CLR,,0.00,WeatherDisplay:10.37,2013-06-28 16:37:00,
2013-06-28 12:39:00,84.8,10.4,29.69,NW,322,8.7,13.8,6,0.00,CLR,,0.00,WeatherDisplay:10.37,2013-06-28 16:39:00,
2013-06-28 12:40:00,84.5,10.2,29.68,WSW,244,7.9,15.0,6,0.00,CLR,,0.00,WeatherDisplay:10.37,2013-06-28 16:40:00,
2013-06-28 12:42:00,85.6,6.9,29.68,West,281,8.5,13.8,5,0.00,CLR,,0.00,WeatherDisplay:10.37,2013-06-28 16:42:00,
2013-06-28 12:44:00,84.8,10.4,29.68,WNW,298,8.5,11.5,6,0.00,CLR,,0.00,WeatherDisplay:10.37,2013-06-28 16:44:00,
2013-06-28 12:45:00,87.0,7.9,29.68,SW,224,6.6,9.2,5,0.00,CLR,,0.00,WeatherDisplay:10.37,2013-06-28 16:45:00,
2013-06-28 12:47:00,85.9,7.1,29.68,WNW,298,11.4,12.7,5,0.00,CLR,,0.00,WeatherDisplay:10.37,2013-06-28 16:47:00,
2013-06-28 12:49:00,86.1,7.2,29.68,West,260,7.5,17.3,5,0.00,CLR,,0.00,WeatherDisplay:10.37,2013-06-28 16:49:00,
2013-06-28 12:50:00,86.5,7.5,29.68,West,274,11.6,17.3,5,0.00,CLR,,0.00,WeatherDisplay:10.37,2013-06-28 16:50:00,
2013-06-28 12:52:00,87.1,3.0,29.68,WNW,285,10.1,15.0,4,0.00,CLR,,0.00,WeatherDisplay:10.37,2013-06-28 16:52:00,
2013-06-28 12:53:00,86.2,7.3,29.68,West,277,11.0,13.8,5,0.00,CLR,,0.00,WeatherDisplay:10.37,2013-06-28 16:53:00,
2013-06-28 12:54:00,85.8,7.0,29.68,WNW,287,9.6,15.0,5,0.00,CLR,,0.00,WeatherDisplay:10.37,2013-06-28 16:54:00,
2013-06-28 12:55:00,85.7,6.9,29.68,WSW,237,8.3,12.7,5,0.00,CLR,,0.00,WeatherDisplay:10.37,2013-06-28 16:55:00,
2013-06-28 12:58:00,84.8,6.3,29.68,West,271,12.6,19.6,5,0.00,CLR,,0.00,WeatherDisplay:10.37,2013-06-28 16:58:00,
2013-06-28 12:59:00,86.7,7.7,29.68,WNW,291,7.7,15.0,5,0.00,CLR,,0.00,WeatherDisplay:10.37,2013-06-28 16:59:00,
2013-06-28 13:00:00,87.1,3.0,29.68,West,265,7.0,11.5,4,0.00,CLR,,0.00,WeatherDisplay:10.37,2013-06-28 17:00:00,
2013-06-28 13:03:00,87.8,8.4,29.68,SSW,200,6.7,15.0,5,0.00,CLR,,0.00,WeatherDisplay:10.37,2013-06-28 17:03:00,
2013-06-28 13:04:00,88.3,8.8,29.68,WSW,246,3.7,13.8,5,0.00,CLR,,0.00,WeatherDisplay:10.37,2013-06-28 17:04:00,
2013-06-28 13:05:00,88.1,8.6,29.68,West,261,6.2,14.2,5,0.00,CLR,,0.00,WeatherDisplay:10.37,2013-06-28 17:05:00,
2013-06-28 13:08:00,87.5,8.2,29.68,West,275,7.7,11.5,5,0.00,CLR,,0.00,WeatherDisplay:10.37,2013-06-28 17:08:00,
2013-06-28 13:09:00,87.2,8.0,29.68,West,265,6.0,10.4,5,0.00,CLR,,0.00,WeatherDisplay:10.37,2013-06-28 17:09:00,
2013-06-28 13:10:00,87.6,8.3,29.67,WNW,291,5.9,13.1,5,0.00,CLR,,0.00,WeatherDisplay:10.37,2013-06-28 17:10:00,
2013-06-28 13:11:00,87.4,8.1,29.68,WNW,289,8.2,9.2,5,0.00,CLR,,0.00,WeatherDisplay:10.37,2013-06-28 17:11:00,
2013-06-28 13:13:00,86.4,7.4,29.67,WNW,298,6.0,10.4,5,0.00,CLR,,0.00,WeatherDisplay:10.37,2013-06-28 17:13:00,
2013-06-28 13:14:00,87.1,7.9,29.67,West,278,8.4,10.4,5,0.00,CLR,,0.00,WeatherDisplay:10.37,2013-06-28 17:14:00,
2013-06-28 13:15:00,87.1,7.9,29.67,WSW,246,7.1,12.7,5,0.00,CLR,,0.00,WeatherDisplay:10.37,2013-06-28 17:15:00,
2013-06-28 13:16:00,87.7,3.5,29.67,North,349,5.1,13.3,4,0.00,CLR,,0.00,WeatherDisplay:10.37,2013-06-28 17:16:00,
2013-06-28 13:18:00,88.0,8.6,29.67,NNW,329,6.0,11.5,5,0.00,CLR,,0.00,WeatherDisplay:10.37,2013-06-28 17:18:00,
2013-06-28 13:20:00,89.0,9.3,29.67,NW,304,7.7,10.4,5,0.00,CLR,,0.00,WeatherDisplay:10.37,2013-06-28 17:20:00,
2013-06-28 13:21:00,89.0,9.3,29.67,SW,216,6.1,10.4,5,0.00,CLR,,0.00,WeatherDisplay:10.37,2013-06-28 17:21:00,
2013-06-28 13:23:00,89.2,9.4,29.67,WNW,285,9.1,15.0,5,0.00,CLR,,0.00,WeatherDisplay:10.37,2013-06-28 17:23:00,
2013-06-28 13:25:00,88.6,9.0,29.67,NW,318,7.4,11.5,5,0.00,CLR,,0.00,WeatherDisplay:10.37,2013-06-28 17:25:00,
2013-06-28 13:26:00,88.8,9.1,29.67,West,277,8.4,13.8,5,0.00,CLR,,0.00,WeatherDisplay:10.37,2013-06-28 17:26:00,
2013-06-28 13:28:00,88.1,8.6,29.67,NNW,330,9.6,11.6,5,0.00,CLR,,0.00,WeatherDisplay:10.37,2013-06-28 17:28:00,
2013-06-28 13:29:00,87.2,8.0,29.67,NNW,347,11.5,15.2,5,0.00,CLR,,0.00,WeatherDisplay:10.37,2013-06-28 17:29:00,
2013-06-28 13:31:00,88.1,12.7,29.67,WNW,301,4.5,13.8,6,0.00,CLR,,0.00,WeatherDisplay:10.37,2013-06-28 17:31:00,
2013-06-28 13:34:00,88.4,8.9,29.67,SW,229,4.4,10.4,5,0.00,CLR,,0.00,WeatherDisplay:10.37,2013-06-28 17:34:00,
2013-06-28 13:36:00,88.1,3.7,29.68,NW,318,11.8,18.4,4,0.00,CLR,,0.00,WeatherDisplay:10.37,2013-06-28 17:36:00,
2013-06-28 13:38:00,88.1,3.7,29.67,SSW,206,9.0,16.1,4,0.00,CLR,,0.00,WeatherDisplay:10.37,2013-06-28 17:38:00,
2013-06-28 13:39:00,88.6,4.1,29.67,WNW,299,6.4,9.2,4,0.00,CLR,,0.00,WeatherDisplay:10.37,2013-06-28 17:39:00,
2013-06-28 13:41:00,88.2,8.7,29.67,WSW,258,7.1,12.7,5,0.00,CLR,,0.00,WeatherDisplay:10.37,2013-06-28 17:41:00,
2013-06-28 13:42:00,87.9,3.6,29.67,SSW,202,10.2,20.7,4,0.00,CLR,,0.00,WeatherDisplay:10.37,2013-06-28 17:42:00,
2013-06-28 13:43:00,87.6,8.3,29.67,WSW,258,9.5,15.0,5,0.00,CLR,,0.00,WeatherDisplay:10.37,2013-06-28 17:43:00,
2013-06-28 13:44:00,88.1,8.6,29.67,West,265,8.9,12.7,5,0.00,CLR,,0.00,WeatherDisplay:10.37,2013-06-28 17:44:00,
2013-06-28 13:46:00,88.6,9.0,29.67,SW,224,7.5,10.4,5,0.00,CLR,,0.00,WeatherDisplay:10.37,2013-06-28 17:46:00,
2013-06-28 13:47:00,89.1,9.3,29.67,South,185,5.4,10.4,5,0.00,CLR,,0.00,WeatherDisplay:10.37,2013-06-28 17:47:00,
2013-06-28 13:48:00,88.6,9.0,29.67,NW,311,4.2,9.5,5,0.00,CLR,,0.00,WeatherDisplay:10.37,2013-06-28 17:48:00,
2013-06-28 13:49:00,89.1,9.3,29.67,NW,304,7.1,9.2,5,0.00,CLR,,0.00,WeatherDisplay:10.37,2013-06-28 17:49:00,
2013-06-28 13:51:00,88.9,9.2,29.67,WSW,257,3.5,13.8,5,0.00,CLR,,0.00,WeatherDisplay:10.37,2013-06-28 17:51:00,
2013-06-28 13:52:00,88.2,8.7,29.67,SSW,212,3.8,9.9,5,0.00,CLR,,0.00,WeatherDisplay:10.37,2013-06-28 17:52:00,
2013-06-28 13:53:00,87.7,8.4,29.67,NW,326,8.0,13.8,5,0.00,CLR,,0.00,WeatherDisplay:10.37,2013-06-28 17:53:00,
2013-06-28 13:54:00,87.8,8.4,29.66,West,265,6.5,12.7,5,0.00,CLR,,0.00,WeatherDisplay:10.37,2013-06-28 17:54:00,
2013-06-28 13:56:00,88.6,9.0,29.66,South,179,5.7,6.9,5,0.00,CLR,,0.00,WeatherDisplay:10.37,2013-06-28 17:56:00,
2013-06-28 13:57:00,88.6,9.0,29.66,WSW,239,6.2,11.4,5,0.00,CLR,,0.00,WeatherDisplay:10.37,2013-06-28 17:57:00,
2013-06-28 13:58:00,88.2,8.7,29.66,WSW,253,6.9,15.0,5,0.00,CLR,,0.00,WeatherDisplay:10.37,2013-06-28 17:58:00,
2013-06-28 13:59:00,88.0,8.6,29.66,SW,227,5.8,15.0,5,0.00,CLR,,0.00,WeatherDisplay:10.37,2013-06-28 17:59:00,
2013-06-28 14:00:00,88.0,8.6,29.66,WNW,282,7.6,15.0,5,0.00,CLR,,0.00,WeatherDisplay:10.37,2013-06-28 18:00:00,
2013-06-28 14:01:00,87.9,12.6,29.66,SE,130,3.0,10.4,6,0.00,CLR,,0.00,WeatherDisplay:10.37,2013-06-28 18:01:00,
2013-06-28 14:03:00,86.7,11.7,29.65,South,189,6.9,10.4,6,0.00,CLR,,0.00,WeatherDisplay:10.37,2013-06-28 18:03:00,
2013-06-28 14:04:00,87.4,12.2,29.66,West,281,3.4,11.5,6,0.00,CLR,,0.00,WeatherDisplay:10.37,2013-06-28 18:04:00,
2013-06-28 14:05:00,87.3,12.2,29.65,West,281,1.4,5.8,6,0.00,CLR,,0.00,WeatherDisplay:10.37,2013-06-28 18:05:00,
2013-06-28 14:06:00,87.1,7.9,29.65,WSW,248,6.3,11.5,5,0.00,CLR,,0.00,WeatherDisplay:10.37,2013-06-28 18:06:00,
2013-06-28 14:08:00,87.0,11.9,29.65,SW,219,5.0,10.4,6,0.00,CLR,,0.00,WeatherDisplay:10.37,2013-06-28 18:08:00,
2013-06-28 14:09:00,88.3,8.8,29.65,West,260,2.1,6.3,5,0.00,CLR,,0.00,WeatherDisplay:10.37,2013-06-28 18:09:00,
2013-06-28 14:10:00,88.1,8.6,29.65,SW,222,6.2,12.1,5,0.00,CLR,,0.00,WeatherDisplay:10.37,2013-06-28 18:10:00,
2013-06-28 14:12:00,88.0,8.6,29.65,WSW,246,6.2,11.5,5,0.00,CLR,,0.00,WeatherDisplay:10.37,2013-06-28 18:12:00,
2013-06-28 14:13:00,88.3,8.8,29.65,WSW,258,8.1,10.4,5,0.00,CLR,,0.00,WeatherDisplay:10.37,2013-06-28 18:13:00,
2013-06-28 14:14:00,88.1,8.6,29.65,South,184,6.9,12.7,5,0.00,CLR,,0.00,WeatherDisplay:10.37,2013-06-28 18:14:00,
2013-06-28 14:15:00,88.1,3.7,29.66,SSW,206,6.8,12.7,4,0.00,CLR,,0.00,WeatherDisplay:10.37,2013-06-28 18:15:00,
2013-06-28 14:17:00,88.7,9.1,29.65,WSW,258,0.3,5.8,5,0.00,CLR,,0.00,WeatherDisplay:10.37,2013-06-28 18:17:00,
2013-06-28 14:19:00,88.3,8.8,29.65,South,182,6.4,9.2,5,0.00,CLR,,0.00,WeatherDisplay:10.37,2013-06-28 18:19:00,
2013-06-28 14:20:00,89.2,-10.1,29.65,South,191,2.8,5.8,2,0.00,CLR,,0.00,WeatherDisplay:10.37,2013-06-28 18:20:00,
2013-06-28 14:23:00,89.1,4.4,29.65,SSW,213,6.6,12.7,4,0.00,CLR,,0.00,WeatherDisplay:10.37,2013-06-28 18:23:00,
2013-06-28 14:24:00,88.4,-10.6,29.65,WNW,288,6.8,11.5,2,0.00,CLR,,0.00,WeatherDisplay:10.37,2013-06-28 18:24:00,
2013-06-28 14:25:00,87.9,8.5,29.65,WNW,294,7.3,10.4,5,0.00,CLR,,0.00,WeatherDisplay:10.37,2013-06-28 18:25:00,
2013-06-28 14:28:00,87.1,7.9,29.65,WSW,243,9.6,13.8,5,0.00,CLR,,0.00,WeatherDisplay:10.37,2013-06-28 18:28:00,
2013-06-28 14:29:00,87.8,8.4,29.65,SW,229,8.3,12.7,5,0.00,CLR,,0.00,WeatherDisplay:10.37,2013-06-28 18:29:00,
2013-06-28 14:30:00,86.5,7.5,29.65,NW,305,6.5,9.2,5,0.00,CLR,,0.00,WeatherDisplay:10.37,2013-06-28 18:30:00,
2013-06-28 14:31:00,88.0,12.7,29.65,WSW,243,4.8,8.1,6,0.00,CLR,,0.00,WeatherDisplay:10.37,2013-06-28 18:31:00,
2013-06-28 14:33:00,87.9,3.6,29.65,SSW,208,9.3,17.3,4,0.00,CLR,,0.00,WeatherDisplay:10.37,2013-06-28 18:33:00,
2013-06-28 14:34:00,88.5,8.9,29.65,WNW,298,6.3,15.0,5,0.00,CLR,,0.00,WeatherDisplay:10.37,2013-06-28 18:34:00,
2013-06-28 14:35:00,88.5,4.0,29.65,SW,215,3.5,5.8,4,0.00,CLR,,0.00,WeatherDisplay:10.37,2013-06-28 18:35:00,
2013-06-28 14:36:00,89.1,9.3,29.65,WSW,241,0.8,5.6,5,0.00,CLR,,0.00,WeatherDisplay:10.37,2013-06-28 18:36:00,
2013-06-28 14:38:00,88.8,9.1,29.64,SW,234,3.6,8.1,5,0.00,CLR,,0.00,WeatherDisplay:10.37,2013-06-28 18:38:00,
2013-06-28 14:39:00,89.3,9.5,29.64,WNW,302,0.7,8.1,5,0.00,CLR,,0.00,WeatherDisplay:10.37,2013-06-28 18:39:00,
2013-06-28 14:40:00,89.2,4.5,29.64,NW,305,7.8,12.7,4,0.00,CLR,,0.00,WeatherDisplay:10.37,2013-06-28 18:40:00,
2013-06-28 14:41:00,89.2,9.4,29.64,WNW,298,6.7,11.6,5,0.00,CLR,,0.00,WeatherDisplay:10.37,2013-06-28 18:41:00,
2013-06-28 14:44:00,89.0,4.4,29.64,NNW,344,4.2,8.1,4,0.00,CLR,,0.00,WeatherDisplay:10.37,2013-06-28 18:44:00,
2013-06-28 14:45:00,89.5,4.7,29.64,NNW,347,6.6,9.2,4,0.00,CLR,,0.00,WeatherDisplay:10.37,2013-06-28 18:45:00,
2013-06-28 14:46:00,89.1,-1.8,29.64,NW,316,7.6,13.8,3,0.00,CLR,,0.00,WeatherDisplay:10.37,2013-06-28 18:46:00,
2013-06-28 14:47:00,89.1,4.4,29.64,WNW,291,7.7,11.5,4,0.00,CLR,,0.00,WeatherDisplay:10.37,2013-06-28 18:47:00,
2013-06-28 14:49:00,88.7,4.1,29.64,NNW,347,5.8,10.4,4,0.00,CLR,,0.00,WeatherDisplay:10.37,2013-06-28 18:49:00,
2013-06-28 14:50:00,89.0,4.4,29.64,WNW,302,4.8,11.5,4,0.00,CLR,,0.00,WeatherDisplay:10.37,2013-06-28 18:50:00,
2013-06-28 14:51:00,89.0,4.4,29.64,NW,304,4.9,10.4,4,0.00,CLR,,0.00,WeatherDisplay:10.37,2013-06-28 18:51:00,
2013-06-28 14:52:00,89.2,4.5,29.64,WSW,240,2.1,6.9,4,0.00,CLR,,0.00,WeatherDisplay:10.37,2013-06-28 18:52:00,
2013-06-28 14:54:00,89.2,-1.7,29.64,WNW,285,6.3,16.1,3,0.00,CLR,,0.00,WeatherDisplay:10.37,2013-06-28 18:54:00,
2013-06-28 14:56:00,89.8,4.9,29.64,West,267,5.1,9.2,4,0.00,CLR,,0.00,WeatherDisplay:10.37,2013-06-28 18:56:00,
2013-06-28 14:57:00,89.8,4.9,29.64,WSW,257,7.3,13.8,4,0.00,CLR,,0.00,WeatherDisplay:10.37,2013-06-28 18:57:00,
2013-06-28 14:59:00,89.6,-1.4,29.64,West,267,6.9,16.1,3,0.00,CLR,,0.00,WeatherDisplay:10.37,2013-06-28 18:59:00,
2013-06-28 15:00:00,89.4,-1.6,29.64,NW,313,8.0,11.6,3,0.00,CLR,,0.00,WeatherDisplay:10.37,2013-06-28 19:00:00,
2013-06-28 15:01:00,89.7,4.8,29.64,WNW,285,7.7,11.5,4,0.00,CLR,,0.00,WeatherDisplay:10.37,2013-06-28 19:01:00,
2013-06-28 15:02:00,90.1,-1.1,29.64,SSW,202,7.5,11.5,3,0.00,CLR,,0.00,WeatherDisplay:10.37,2013-06-28 19:02:00,
2013-06-28 15:04:00,89.7,-1.4,29.64,WNW,302,10.2,17.3,3,0.00,CLR,,0.00,WeatherDisplay:10.37,2013-06-28 19:04:00,
2013-06-28 15:05:00,89.6,-1.4,29.64,WNW,289,9.3,18.4,3,0.00,CLR,,0.00,WeatherDisplay:10.37,2013-06-28 19:05:00,
2013-06-28 15:06:00,89.4,-1.6,29.64,West,281,8.8,18.4,3,0.00,CLR,,0.00,WeatherDisplay:10.37,2013-06-28 19:06:00,
2013-06-28 15:08:00,89.0,-1.8,29.64,NW,320,12.5,21.9,3,0.00,CLR,,0.00,WeatherDisplay:10.37,2013-06-28 19:08:00,
2013-06-28 15:09:00,89.1,-1.8,29.64,West,270,4.7,17.3,3,0.00,CLR,,0.00,WeatherDisplay:10.37,2013-06-28 19:09:00,
2013-06-28 15:10:00,89.3,-1.6,29.64,SSW,200,4.3,10.4,3,0.00,CLR,,0.00,WeatherDisplay:10.37,2013-06-28 19:10:00,
2013-06-28 15:11:00,89.8,-1.3,29.64,SW,215,4.7,8.6,3,0.00,CLR,,0.00,WeatherDisplay:10.37,2013-06-28 19:11:00,
2013-06-28 15:13:00,89.9,-1.2,29.64,WSW,248,8.0,11.5,3,0.00,CLR,,0.00,WeatherDisplay:10.37,2013-06-28 19:13:00,
2013-06-28 15:14:00,89.7,-1.4,29.63,WSW,257,8.9,12.7,3,0.00,CLR,,0.00,WeatherDisplay:10.37,2013-06-28 19:14:00,
2013-06-28 15:15:00,90.0,-1.2,29.63,WNW,288,8.7,12.7,3,0.00,CLR,,0.00,WeatherDisplay:10.37,2013-06-28 19:15:00,
2013-06-28 15:16:00,90.0,-1.2,29.63,WSW,244,8.2,13.7,3,0.00,CLR,,0.00,WeatherDisplay:10.37,2013-06-28 19:16:00,
2013-06-28 15:17:00,90.0,-1.2,29.63,West,263,7.8,13.8,3,0.00,CLR,,0.00,WeatherDisplay:10.37,2013-06-28 19:17:00,
2013-06-28 15:18:00,90.2,-1.0,29.63,WNW,299,7.0,13.8,3,0.00,CLR,,0.00,WeatherDisplay:10.37,2013-06-28 19:18:00,
2013-06-28 15:19:00,90.0,-1.2,29.63,NW,313,2.7,6.3,3,0.00,CLR,,0.00,WeatherDisplay:10.37,2013-06-28 19:19:00,
2013-06-28 15:20:00,90.2,-1.0,29.63,SW,223,3.4,11.3,3,0.00,CLR,,0.00,WeatherDisplay:10.37,2013-06-28 19:20:00,
2013-06-28 15:21:00,89.7,-1.4,29.63,SW,232,8.3,12.7,3,0.00,CLR,,0.00,WeatherDisplay:10.37,2013-06-28 19:21:00,
2013-06-28 15:22:00,90.1,-1.1,29.63,WNW,285,10.1,15.0,3,0.00,CLR,,0.00,WeatherDisplay:10.37,2013-06-28 19:22:00,
2013-06-28 15:23:00,89.9,-1.2,29.63,WSW,258,8.8,15.5,3,0.00,CLR,,0.00,WeatherDisplay:10.37,2013-06-28 19:23:00,
2013-06-28 15:25:00,89.5,-1.5,29.63,NW,313,7.5,13.8,3,0.00,CLR,,0.00,WeatherDisplay:10.37,2013-06-28 19:25:00,
2013-06-28 15:26:00,90.0,-1.2,29.63,West,281,5.1,9.2,3,0.00,CLR,,0.00,WeatherDisplay:10.37,2013-06-28 19:26:00,
2013-06-28 15:27:00,89.8,-1.3,29.63,West,277,9.2,16.1,3,0.00,CLR,,0.00,WeatherDisplay:10.37,2013-06-28 19:27:00,
2013-06-28 15:28:00,89.7,-1.4,29.63,SSW,193,10.6,16.1,3,0.00,CLR,,0.00,WeatherDisplay:10.37,2013-06-28 19:28:00,
2013-06-28 15:30:00,89.5,-1.5,29.63,NNW,330,11.5,23.0,3,0.00,CLR,,0.00,WeatherDisplay:10.37,2013-06-28 19:30:00,
2013-06-28 15:31:00,89.2,-1.7,29.63,NW,320,8.7,11.5,3,0.00,CLR,,0.00,WeatherDisplay:10.37,2013-06-28 19:31:00,
2013-06-28 15:32:00,89.8,-1.3,29.63,WNW,285,9.8,15.0,3,0.00,CLR,,0.00,WeatherDisplay:10.37,2013-06-28 19:32:00,
2013-06-28 15:34:00,89.8,-1.3,29.63,WNW,301,7.5,10.8,3,0.00,CLR,,0.00,WeatherDisplay:10.37,2013-06-28 19:34:00,
2013-06-28 15:35:00,89.8,-1.3,29.63,West,270,11.0,14.5,3,0.00,CLR,,0.00,WeatherDisplay:10.37,2013-06-28 19:35:00,
2013-06-28 15:36:00,89.1,-1.8,29.63,WNW,298,11.3,18.5,3,0.00,CLR,,0.00,WeatherDisplay:10.37,2013-06-28 19:36:00,
2013-06-28 15:37:00,89.3,-1.6,29.63,WNW,291,9.2,18.4,3,0.00,CLR,,0.00,WeatherDisplay:10.37,2013-06-28 19:37:00,
2013-06-28 15:39:00,89.8,-1.3,29.63,WNW,282,5.7,10.4,3,0.00,CLR,,0.00,WeatherDisplay:10.37,2013-06-28 19:39:00,
2013-06-28 15:40:00,89.7,-9.8,29.63,NW,309,7.0,12.2,2,0.00,CLR,,0.00,WeatherDisplay:10.37,2013-06-28 19:40:00,
2013-06-28 15:41:00,90.0,-9.6,29.63,NW,306,10.0,15.0,2,0.00,CLR,,0.00,WeatherDisplay:10.37,2013-06-28 19:41:00,
2013-06-28 15:43:00,90.0,-1.2,29.63,NNW,329,9.1,16.1,3,0.00,CLR,,0.00,WeatherDisplay:10.37,2013-06-28 19:43:00,
2013-06-28 15:44:00,89.9,-9.6,29.63,SW,222,7.7,20.2,2,0.00,CLR,,0.00,WeatherDisplay:10.37,2013-06-28 19:44:00,
2013-06-28 15:45:00,89.4,-10.0,29.63,WSW,254,9.3,20.7,2,0.00,CLR,,0.00,WeatherDisplay:10.37,2013-06-28 19:45:00,
2013-06-28 15:46:00,89.6,-9.8,29.63,NW,318,6.9,11.5,2,0.00,CLR,,0.00,WeatherDisplay:10.37,2013-06-28 19:46:00,
2013-06-28 15:48:00,90.0,-1.2,29.63,WNW,285,6.1,10.4,3,0.00,CLR,,0.00,WeatherDisplay:10.37,2013-06-28 19:48:00,
2013-06-28 15:49:00,90.4,-9.3,29.63,WNW,299,9.7,17.3,2,0.00,CLR,,0.00,WeatherDisplay:10.37,2013-06-28 19:49:00,
2013-06-28 15:50:00,90.1,-9.5,29.62,NW,319,8.3,17.3,2,0.00,CLR,,0.00,WeatherDisplay:10.37,2013-06-28 19:50:00,
2013-06-28 15:52:00,90.2,-9.5,29.62,WNW,287,7.8,13.8,2,0.00,CLR,,0.00,WeatherDisplay:10.37,2013-06-28 19:52:00,
2013-06-28 15:53:00,90.2,-1.0,29.62,WNW,287,7.9,12.7,3,0.00,CLR,,0.00,WeatherDisplay:10.37,2013-06-28 19:53:00,
2013-06-28 15:55:00,90.1,-9.5,29.62,NW,323,10.2,15.0,2,0.00,CLR,,0.00,WeatherDisplay:10.37,2013-06-28 19:55:00,
2013-06-28 15:56:00,90.2,-9.5,29.62,WNW,302,9.7,15.0,2,0.00,CLR,,0.00,WeatherDisplay:10.37,2013-06-28 19:56:00,
2013-06-28 15:58:00,89.6,-9.8,29.62,NW,318,10.6,18.4,2,0.00,CLR,,0.00,WeatherDisplay:10.37,2013-06-28 19:58:00,
2013-06-28 16:00:00,88.7,-10.4,29.62,NNW,343,11.5,17.3,2,0.00,CLR,,0.00,WeatherDisplay:10.37,2013-06-28 20:00:00,
2013-06-28 16:01:00,88.4,-2.2,29.62,West,275,10.2,17.3,3,0.00,CLR,,0.00,WeatherDisplay:10.37,2013-06-28 20:01:00,
2013-06-28 16:02:00,89.1,-1.8,29.61,NW,312,9.3,13.8,3,0.00,CLR,,0.00,WeatherDisplay:10.37,2013-06-28 20:02:00,
2013-06-28 16:03:00,88.6,-2.1,29.61,NNE,32,10.8,18.4,3,0.00,CLR,,0.00,WeatherDisplay:10.37,2013-06-28 20:03:00,
2013-06-28 16:05:00,89.1,-1.8,29.61,NNW,335,7.6,11.1,3,0.00,CLR,,0.00,WeatherDisplay:10.37,2013-06-28 20:05:00,
2013-06-28 16:06:00,89.0,-1.8,29.60,NW,313,7.4,10.4,3,0.00,CLR,,0.00,WeatherDisplay:10.37,2013-06-28 20:06:00,
2013-06-28 16:07:00,89.1,4.4,29.60,NNW,346,6.7,11.5,4,0.00,CLR,,0.00,WeatherDisplay:10.37,2013-06-28 20:07:00,
2013-06-28 16:08:00,89.1,-10.2,29.60,West,260,12.0,15.0,2,0.00,CLR,,0.00,WeatherDisplay:10.37,2013-06-28 20:08:00,
2013-06-28 16:10:00,89.1,-1.8,29.60,NNW,339,8.7,12.7,3,0.00,CLR,,0.00,WeatherDisplay:10.37,2013-06-28 20:10:00,
2013-06-28 16:11:00,89.6,-1.4,29.60,WNW,288,6.4,12.7,3,0.00,CLR,,0.00,WeatherDisplay:10.37,2013-06-28 20:11:00,
2013-06-28 16:12:00,89.6,-1.4,29.60,North,353,7.1,9.2,3,0.00,CLR,,0.00,WeatherDisplay:10.37,2013-06-28 20:12:00,
2013-06-28 16:13:00,89.4,-1.6,29.60,WNW,287,6.0,9.2,3,0.00,CLR,,0.00,WeatherDisplay:10.37,2013-06-28 20:13:00,
2013-06-28 16:16:00,90.3,-9.4,29.60,West,275,6.4,10.4,2,0.00,CLR,,0.00,WeatherDisplay:10.37,2013-06-28 20:16:00,
2013-06-28 16:17:00,89.8,-9.7,29.60,WNW,285,8.8,15.4,2,0.00,CLR,,0.00,WeatherDisplay:10.37,2013-06-28 20:17:00,
2013-06-28 16:18:00,90.2,-9.5,29.60,West,281,7.0,10.8,2,0.00,CLR,,0.00,WeatherDisplay:10.37,2013-06-28 20:18:00,
2013-06-28 16:21:00,89.6,-9.8,29.60,NW,309,10.2,19.6,2,0.00,CLR,,0.00,WeatherDisplay:10.37,2013-06-28 20:21:00,
2013-06-28 16:22:00,89.3,-1.6,29.60,NW,323,6.1,16.1,3,0.00,CLR,,0.00,WeatherDisplay:10.37,2013-06-28 20:22:00,
2013-06-28 16:24:00,89.5,-1.5,29.60,West,267,11.5,20.7,3,0.00,CLR,,0.00,WeatherDisplay:10.37,2013-06-28 20:24:00,
2013-06-28 16:26:00,88.5,-10.5,29.60,West,270,9.7,16.1,2,0.00,CLR,,0.00,WeatherDisplay:10.37,2013-06-28 20:26:00,
2013-06-28 16:27:00,88.7,-2.0,29.60,WNW,301,8.3,12.7,3,0.00,CLR,,0.00,WeatherDisplay:10.37,2013-06-28 20:27:00,
2013-06-28 16:29:00,87.6,-2.8,29.60,NW,325,9.7,13.8,3,0.00,CLR,,0.00,WeatherDisplay:10.37,2013-06-28 20:29:00,
2013-06-28 16:31:00,86.4,-3.6,29.60,West,280,9.3,12.7,3,0.00,CLR,,0.00,WeatherDisplay:10.37,2013-06-28 20:31:00,
2013-06-28 16:32:00,87.5,-2.8,29.60,West,270,6.3,17.3,3,0.00,CLR,,0.00,WeatherDisplay:10.37,2013-06-28 20:32:00,
2013-06-28 16:34:00,86.4,-3.6,29.60,NW,315,6.4,11.5,3,0.00,CLR,,0.00,WeatherDisplay:10.37,2013-06-28 20:34:00,
2013-06-28 16:36:00,85.7,-4.0,29.59,NW,316,9.7,17.3,3,0.00,CLR,,0.00,WeatherDisplay:10.37,2013-06-28 20:36:00,
2013-06-28 16:37:00,85.7,2.1,29.60,West,280,6.9,13.8,4,0.00,CLR,,0.00,WeatherDisplay:10.37,2013-06-28 20:37:00,
2013-06-28 16:39:00,86.0,-3.8,29.60,North,3,9.1,12.7,3,0.00,CLR,,0.00,WeatherDisplay:10.37,2013-06-28 20:39:00,
2013-06-28 16:41:00,86.2,2.4,29.60,WNW,289,8.8,15.0,4,0.00,CLR,,0.00,WeatherDisplay:10.37,2013-06-28 20:41:00,
2013-06-28 16:42:00,87.0,-3.2,29.60,West,264,6.6,15.0,3,0.00,CLR,,0.00,WeatherDisplay:10.37,2013-06-28 20:42:00,
2013-06-28 16:43:00,86.7,2.8,29.60,NW,316,8.9,13.8,4,0.00,CLR,,0.00,WeatherDisplay:10.37,2013-06-28 20:43:00,
2013-06-28 16:44:00,87.6,3.4,29.60,NW,306,8.6,11.5,4,0.00,CLR,,0.00,WeatherDisplay:10.37,2013-06-28 20:44:00,
2013-06-28 16:46:00,88.4,3.9,29.60,NNW,340,5.9,8.1,4,0.00,CLR,,0.00,WeatherDisplay:10.37,2013-06-28 20:46:00,
2013-06-28 16:47:00,88.6,-2.1,29.60,WNW,285,5.6,9.4,3,0.00,CLR,,0.00,WeatherDisplay:10.37,2013-06-28 20:47:00,
2013-06-28 16:48:00,88.6,-2.1,29.60,NW,312,7.6,9.3,3,0.00,CLR,,0.00,WeatherDisplay:10.37,2013-06-28 20:48:00,
2013-06-28 16:50:00,88.2,-2.4,29.60,WNW,288,7.4,11.5,3,0.00,CLR,,0.00,WeatherDisplay:10.37,2013-06-28 20:50:00,
2013-06-28 16:51:00,88.5,-2.2,29.60,WNW,301,5.4,11.5,3,0.00,CLR,,0.00,WeatherDisplay:10.37,2013-06-28 20:51:00,
2013-06-28 16:52:00,88.9,-1.9,29.60,North,350,6.4,11.5,3,0.00,CLR,,0.00,WeatherDisplay:10.37,2013-06-28 20:52:00,
2013-06-28 16:53:00,88.4,3.9,29.59,NW,305,6.8,9.2,4,0.00,CLR,,0.00,WeatherDisplay:10.37,2013-06-28 20:53:00,
2013-06-28 16:54:00,88.6,-2.1,29.59,West,265,8.0,11.5,3,0.00,CLR,,0.00,WeatherDisplay:10.37,2013-06-28 20:54:00,
2013-06-28 16:55:00,88.2,3.8,29.59,West,275,6.7,10.4,4,0.00,CLR,,0.00,WeatherDisplay:10.37,2013-06-28 20:55:00,
2013-06-28 16:56:00,88.5,4.0,29.59,WNW,288,4.5,8.1,4,0.00,CLR,,0.00,WeatherDisplay:10.37,2013-06-28 20:56:00,
2013-06-28 16:57:00,88.5,-2.2,29.59,West,278,6.5,8.1,3,0.00,CLR,,0.00,WeatherDisplay:10.37,2013-06-28 20:57:00,
2013-06-28 16:58:00,88.1,-2.4,29.59,West,278,8.3,12.7,3,0.00,CLR,,0.00,WeatherDisplay:10.37,2013-06-28 20:58:00,
2013-06-28 16:59:00,88.5,-2.2,29.59,NNW,336,8.7,12.7,3,0.00,CLR,,0.00,WeatherDisplay:10.37,2013-06-28 20:59:00,
2013-06-28 17:00:00,88.1,-2.4,29.59,NNE,16,10.5,13.8,3,0.00,CLR,,0.00,WeatherDisplay:10.37,2013-06-28 21:00:00,
2013-06-28 17:02:00,87.4,-2.9,29.59,NW,312,15.3,18.4,3,0.00,CLR,,0.00,WeatherDisplay:10.37,2013-06-28 21:02:00,
2013-06-28 17:03:00,87.2,-3.0,29.59,WSW,254,10.3,31.1,3,0.00,CLR,,0.00,WeatherDisplay:10.37,2013-06-28 21:03:00,
2013-06-28 17:04:00,87.7,-2.7,29.59,NW,320,7.1,16.1,3,0.00,CLR,,0.00,WeatherDisplay:10.37,2013-06-28 21:04:00,
2013-06-28 17:05:00,88.1,-2.4,29.59,West,280,10.1,19.6,3,0.00,CLR,,0.00,WeatherDisplay:10.37,2013-06-28 21:05:00,
2013-06-28 17:07:00,88.1,-2.4,29.58,SW,236,7.8,11.5,3,0.00,CLR,,0.00,WeatherDisplay:10.37,2013-06-28 21:07:00,
2013-06-28 17:08:00,88.6,-2.1,29.58,WSW,256,8.7,13.6,3,0.00,CLR,,0.00,WeatherDisplay:10.37,2013-06-28 21:08:00,
2013-06-28 17:09:00,88.6,-2.1,29.58,WNW,288,10.4,12.7,3,0.00,CLR,,0.00,WeatherDisplay:10.37,2013-06-28 21:09:00,
2013-06-28 17:11:00,88.5,-2.2,29.58,NNW,330,10.4,13.8,3,0.00,CLR,,0.00,WeatherDisplay:10.37,2013-06-28 21:11:00,
2013-06-28 17:12:00,87.8,-2.6,29.58,WNW,301,6.5,13.8,3,0.00,CLR,,0.00,WeatherDisplay:10.37,2013-06-28 21:12:00,
2013-06-28 17:14:00,88.5,-2.2,29.58,NW,318,9.3,13.8,3,0.00,CLR,,0.00,WeatherDisplay:10.37,2013-06-28 21:14:00,
2013-06-28 17:16:00,89.3,-1.6,29.58,WNW,294,6.0,11.5,3,0.00,CLR,,0.00,WeatherDisplay:10.37,2013-06-28 21:16:00,
2013-06-28 17:17:00,88.7,-2.0,29.58,WNW,285,9.6,13.8,3,0.00,CLR,,0.00,WeatherDisplay:10.37,2013-06-28 21:17:00,
2013-06-28 17:19:00,88.6,-10.5,29.58,WNW,299,12.2,13.8,2,0.00,CLR,,0.00,WeatherDisplay:10.37,2013-06-28 21:19:00,
2013-06-28 17:21:00,87.6,-2.8,29.58,West,274,11.0,15.0,3,0.00,CLR,,0.00,WeatherDisplay:10.37,2013-06-28 21:21:00,
2013-06-28 17:22:00,88.5,-2.2,29.58,West,277,5.8,12.5,3,0.00,CLR,,0.00,WeatherDisplay:10.37,2013-06-28 21:22:00,
2013-06-28 17:23:00,88.3,-10.7,29.58,WNW,298,6.2,11.5,2,0.00,CLR,,0.00,WeatherDisplay:10.37,2013-06-28 21:23:00,
2013-06-28 17:24:00,88.4,-2.2,29.58,West,275,11.5,18.4,3,0.00,CLR,,0.00,WeatherDisplay:10.37,2013-06-28 21:24:00,
2013-06-28 17:26:00,88.6,-10.5,29.58,West,267,7.5,18.4,2,0.00,CLR,,0.00,WeatherDisplay:10.37,2013-06-28 21:26:00,
2013-06-28 17:28:00,88.3,-10.7,29.58,West,281,9.5,18.4,2,0.00,CLR,,0.00,WeatherDisplay:10.37,2013-06-28 21:28:00,
2013-06-28 17:29:00,88.4,-10.6,29.58,WNW,282,6.0,8.9,2,0.00,CLR,,0.00,WeatherDisplay:10.37,2013-06-28 21:29:00,
2013-06-28 17:31:00,88.3,-10.7,29.58,West,268,8.0,15.0,2,0.00,CLR,,0.00,WeatherDisplay:10.37,2013-06-28 21:31:00,
2013-06-28 17:33:00,89.1,-1.8,29.58,NW,308,2.0,9.2,3,0.00,CLR,,0.00,WeatherDisplay:10.37,2013-06-28 21:33:00,
2013-06-28 17:35:00,89.5,-1.5,29.59,NW,305,5.9,8.1,3,0.00,CLR,,0.00,WeatherDisplay:10.37,2013-06-28 21:35:00,
2013-06-28 17:36:00,89.6,-9.8,29.58,WNW,291,8.2,10.4,2,0.00,CLR,,0.00,WeatherDisplay:10.37,2013-06-28 21:36:00,
2013-06-28 17:38:00,88.7,-2.0,29.58,WNW,301,8.4,11.5,3,0.00,CLR,,0.00,WeatherDisplay:10.37,2013-06-28 21:38:00,
2013-06-28 17:40:00,88.6,-2.1,29.58,West,263,6.4,12.7,3,0.00,CLR,,0.00,WeatherDisplay:10.37,2013-06-28 21:40:00,
2013-06-28 17:42:00,88.8,-2.0,29.58,NW,304,5.8,9.7,3,0.00,CLR,,0.00,WeatherDisplay:10.37,2013-06-28 21:42:00,
2013-06-28 17:43:00,88.7,-10.4,29.58,WNW,299,8.7,13.8,2,0.00,CLR,,0.00,WeatherDisplay:10.37,2013-06-28 21:43:00,
2013-06-28 17:45:00,88.7,-2.0,29.58,NW,323,9.7,12.7,3,0.00,CLR,,0.00,WeatherDisplay:10.37,2013-06-28 21:45:00,
2013-06-28 17:47:00,88.4,-2.2,29.58,NNW,346,3.7,8.1,3,0.00,CLR,,0.00,WeatherDisplay:10.37,2013-06-28 21:47:00,
2013-06-28 17:48:00,88.6,-2.1,29.58,North,4,1.9,4.6,3,0.00,CLR,,0.00,WeatherDisplay:10.37,2013-06-28 21:48:00,
2013-06-28 17:50:00,88.3,-2.3,29.58,WNW,292,6.3,11.5,3,0.00,CLR,,0.00,WeatherDisplay:10.37,2013-06-28 21:50:00,
2013-06-28 17:51:00,88.2,-2.4,29.58,NW,320,7.7,11.5,3,0.00,CLR,,0.00,WeatherDisplay:10.37,2013-06-28 21:51:00,
2013-06-28 17:53:00,88.4,-2.2,29.59,NW,306,1.3,10.4,3,0.00,CLR,,0.00,WeatherDisplay:10.37,2013-06-28 21:53:00,
2013-06-28 17:54:00,88.8,-2.0,29.58,West,278,5.9,18.2,3,0.00,CLR,,0.00,WeatherDisplay:10.37,2013-06-28 21:54:00,
2013-06-28 17:55:00,88.6,-2.1,29.58,WSW,243,5.7,10.4,3,0.00,CLR,,0.00,WeatherDisplay:10.37,2013-06-28 21:55:00,
2013-06-28 17:56:00,88.3,-10.7,29.58,SW,227,8.0,15.3,2,0.00,CLR,,0.00,WeatherDisplay:10.37,2013-06-28 21:56:00,
2013-06-28 17:58:00,88.5,-2.2,29.58,West,274,6.9,16.1,3,0.00,CLR,,0.00,WeatherDisplay:10.37,2013-06-28 21:58:00,
2013-06-28 17:59:00,88.4,-2.2,29.58,West,261,7.1,13.8,3,0.00,CLR,,0.00,WeatherDisplay:10.37,2013-06-28 21:59:00,
2013-06-28 18:00:00,88.9,-1.9,29.58,WSW,240,6.8,11.5,3,0.00,CLR,,0.00,WeatherDisplay:10.37,2013-06-28 22:00:00,
2013-06-28 18:01:00,88.6,-2.1,29.58,WNW,295,6.6,11.5,3,0.00,CLR,,0.00,WeatherDisplay:10.37,2013-06-28 22:01:00,
2013-06-28 18:03:00,88.9,-1.9,29.58,South,175,6.5,6.9,3,0.00,CLR,,0.00,WeatherDisplay:10.37,2013-06-28 22:03:00,
2013-06-28 18:04:00,89.3,-1.6,29.58,West,261,4.0,11.5,3,0.00,CLR,,0.00,WeatherDisplay:10.37,2013-06-28 22:04:00,
2013-06-28 18:05:00,89.2,-1.7,29.58,SW,217,4.6,11.5,3,0.00,CLR,,0.00,WeatherDisplay:10.37,2013-06-28 22:05:00,
2013-06-28 18:06:00,89.3,-1.6,29.58,WNW,294,6.6,11.5,3,0.00,CLR,,0.00,WeatherDisplay:10.37,2013-06-28 22:06:00,
2013-06-28 18:08:00,88.7,-2.0,29.58,NNE,16,4.5,12.4,3,0.00,CLR,,0.00,WeatherDisplay:10.37,2013-06-28 22:08:00,
2013-06-28 18:09:00,88.8,-2.0,29.58,North,360,10.0,12.7,3,0.00,CLR,,0.00,WeatherDisplay:10.37,2013-06-28 22:09:00,
2013-06-28 18:10:00,88.6,-2.1,29.58,SSW,205,3.2,12.7,3,0.00,CLR,,0.00,WeatherDisplay:10.37,2013-06-28 22:10:00,
2013-06-28 18:11:00,88.2,-2.4,29.58,WSW,253,2.8,12.7,3,0.00,CLR,,0.00,WeatherDisplay:10.37,2013-06-28 22:11:00,
2013-06-28 18:13:00,89.0,-1.8,29.58,WNW,294,3.2,6.9,3,0.00,CLR,,0.00,WeatherDisplay:10.37,2013-06-28 22:13:00,
2013-06-28 18:14:00,89.4,-1.6,29.58,WSW,241,2.5,6.9,3,0.00,CLR,,0.00,WeatherDisplay:10.37,2013-06-28 22:14:00,
2013-06-28 18:16:00,89.1,-1.8,29.58,WNW,294,6.7,12.7,3,0.00,CLR,,0.00,WeatherDisplay:10.37,2013-06-28 22:16:00,
2013-06-28 18:19:00,88.7,-2.0,29.58,West,267,5.8,6.9,3,0.00,CLR,,0.00,WeatherDisplay:10.37,2013-06-28 22:19:00,
2013-06-28 18:21:00,88.5,-2.2,29.58,WNW,295,7.7,13.8,3,0.00,CLR,,0.00,WeatherDisplay:10.37,2013-06-28 22:21:00,
2013-06-28 18:24:00,87.0,-3.2,29.58,WSW,247,7.3,9.2,3,0.00,CLR,,0.00,WeatherDisplay:10.37,2013-06-28 22:24:00,
2013-06-28 18:26:00,87.2,-3.0,29.58,West,267,7.7,11.5,3,0.00,CLR,,0.00,WeatherDisplay:10.37,2013-06-28 22:26:00,
2013-06-28 18:29:00,87.0,-3.2,29.58,North,354,5.7,6.9,3,0.00,CLR,,0.00,WeatherDisplay:10.37,2013-06-28 22:29:00,
2013-06-28 18:30:00,86.9,-3.2,29.58,West,265,5.5,6.9,3,0.00,CLR,,0.00,WeatherDisplay:10.37,2013-06-28 22:30:00,
2013-06-28 18:31:00,87.0,-3.2,29.58,NW,305,5.3,8.1,3,0.00,CLR,,0.00,WeatherDisplay:10.37,2013-06-28 22:31:00,
2013-06-28 18:32:00,87.4,-11.2,29.58,WNW,287,8.1,11.5,2,0.00,CLR,,0.00,WeatherDisplay:10.37,2013-06-28 22:32:00,
2013-06-28 18:35:00,87.8,-2.6,29.58,NNW,330,7.1,11.5,3,0.00,CLR,,0.00,WeatherDisplay:10.37,2013-06-28 22:35:00,
2013-06-28 18:36:00,86.6,-3.4,29.59,WSW,237,8.9,11.5,3,0.00,CLR,,0.00,WeatherDisplay:10.37,2013-06-28 22:36:00,
2013-06-28 18:38:00,87.3,-3.0,29.59,WNW,298,5.5,10.4,3,0.00,CLR,,0.00,WeatherDisplay:10.37,2013-06-28 22:38:00,
2013-06-28 18:40:00,87.3,-3.0,29.59,NW,311,8.0,10.4,3,0.00,CLR,,0.00,WeatherDisplay:10.37,2013-06-28 22:40:00,
2013-06-28 18:41:00,86.5,-11.8,29.59,NW,325,9.0,16.1,2,0.00,CLR,,0.00,WeatherDisplay:10.37,2013-06-28 22:41:00,
2013-06-28 18:43:00,87.2,-3.0,29.59,North,1,7.1,9.2,3,0.00,CLR,,0.00,WeatherDisplay:10.37,2013-06-28 22:43:00,
2013-06-28 18:45:00,87.7,-2.7,29.59,SW,224,5.2,8.1,3,0.00,CLR,,0.00,WeatherDisplay:10.37,2013-06-28 22:45:00,
2013-06-28 18:46:00,88.3,-2.3,29.59,North,360,2.7,5.8,3,0.00,CLR,,0.00,WeatherDisplay:10.37,2013-06-28 22:46:00,
2013-06-28 18:48:00,88.2,-2.4,29.59,NW,320,4.0,6.9,3,0.00,CLR,,0.00,WeatherDisplay:10.37,2013-06-28 22:48:00,
2013-06-28 18:50:00,88.5,-2.2,29.59,WSW,237,6.3,12.7,3,0.00,CLR,,0.00,WeatherDisplay:10.37,2013-06-28 22:50:00,
2013-06-28 18:52:00,88.1,-2.4,29.59,NW,309,5.7,9.3,3,0.00,CLR,,0.00,WeatherDisplay:10.37,2013-06-28 22:52:00,
2013-06-28 18:53:00,88.0,-2.5,29.59,NW,318,5.9,9.2,3,0.00,CLR,,0.00,WeatherDisplay:10.37,2013-06-28 22:53:00,
2013-06-28 18:55:00,87.9,-2.6,29.59,North,0,2.1,12.7,3,0.00,CLR,,0.00,WeatherDisplay:10.37,2013-06-28 22:55:00,
2013-06-28 18:57:00,87.4,-2.9,29.59,NNW,330,6.3,9.2,3,0.00,CLR,,0.00,WeatherDisplay:10.37,2013-06-28 22:57:00,
2013-06-28 18:58:00,87.7,-2.7,29.60,West,275,8.0,12.7,3,0.00,CLR,,0.00,WeatherDisplay:10.37,2013-06-28 22:58:00,
2013-06-28 19:00:00,88.5,-2.2,29.60,SW,224,5.7,8.1,3,0.00,CLR,,0.00,WeatherDisplay:10.37,2013-06-28 23:00:00,
2013-06-28 19:01:00,88.5,-2.2,29.60,NW,305,5.5,8.1,3,0.00,CLR,,0.00,WeatherDisplay:10.37,2013-06-28 23:01:00,
2013-06-28 19:02:00,88.6,-2.1,29.60,WSW,258,5.2,9.2,3,0.00,CLR,,0.00,WeatherDisplay:10.37,2013-06-28 23:02:00,
2013-06-28 19:04:00,88.7,-2.0,29.60,WSW,246,3.9,8.0,3,0.00,CLR,,0.00,WeatherDisplay:10.37,2013-06-28 23:04:00,
2013-06-28 19:05:00,88.4,-2.2,29.60,WNW,292,4.9,9.2,3,0.00,CLR,,0.00,WeatherDisplay:10.37,2013-06-28 23:05:00,
2013-06-28 19:06:00,88.4,-2.2,29.60,WNW,292,4.4,9.2,3,0.00,CLR,,0.00,WeatherDisplay:10.37,2013-06-28 23:06:00,
2013-06-28 19:08:00,88.8,-2.0,29.60,WNW,295,3.6,8.1,3,0.00,CLR,,0.00,WeatherDisplay:10.37,2013-06-28 23:08:00,
2013-06-28 19:09:00,88.6,-2.1,29.60,WSW,254,4.5,11.5,3,0.00,CLR,,0.00,WeatherDisplay:10.37,2013-06-28 23:09:00,
2013-06-28 19:11:00,87.9,-2.6,29.60,WNW,302,5.6,10.4,3,0.00,CLR,,0.00,WeatherDisplay:10.37,2013-06-28 23:11:00,
2013-06-28 19:13:00,87.9,-2.6,29.61,North,349,6.0,9.2,3,0.00,CLR,,0.00,WeatherDisplay:10.37,2013-06-28 23:13:00,
2013-06-28 19:14:00,87.8,-2.6,29.61,WSW,251,5.2,9.2,3,0.00,CLR,,0.00,WeatherDisplay:10.37,2013-06-28 23:14:00,
2013-06-28 19:16:00,87.6,-2.8,29.61,NNW,330,4.6,5.8,3,0.00,CLR,,0.00,WeatherDisplay:10.37,2013-06-28 23:16:00,
2013-06-28 19:17:00,87.3,-3.0,29.61,West,267,8.1,8.1,3,0.00,CLR,,0.00,WeatherDisplay:10.37,2013-06-28 23:17:00,
2013-06-28 19:18:00,86.9,-3.2,29.61,South,175,7.4,10.4,3,0.00,CLR,,0.00,WeatherDisplay:10.37,2013-06-28 23:18:00,
2013-06-28 19:19:00,87.2,-3.0,29.61,WNW,302,3.6,10.4,3,0.00,CLR,,0.00,WeatherDisplay:10.37,2013-06-28 23:19:00,
2013-06-28 19:21:00,88.0,-2.5,29.62,WSW,251,5.0,9.2,3,0.00,CLR,,0.00,WeatherDisplay:10.37,2013-06-28 23:21:00,
2013-06-28 19:22:00,87.3,-3.0,29.61,NW,308,6.1,9.2,3,0.00,CLR,,0.00,WeatherDisplay:10.37,2013-06-28 23:22:00,
2013-06-28 19:23:00,87.5,-2.8,29.61,West,275,7.3,9.8,3,0.00,CLR,,0.00,WeatherDisplay:10.37,2013-06-28 23:23:00,
2013-06-28 19:25:00,87.5,-2.8,29.61,WNW,289,5.3,11.5,3,0.00,CLR,,0.00,WeatherDisplay:10.37,2013-06-28 23:25:00,
2013-06-28 19:26:00,87.5,-2.8,29.61,NW,326,2.1,5.8,3,0.00,CLR,,0.00,WeatherDisplay:10.37,2013-06-28 23:26:00,
2013-06-28 19:27:00,86.3,-3.6,29.62,WSW,254,4.4,10.4,3,0.00,CLR,,0.00,WeatherDisplay:10.37,2013-06-28 23:27:00,
2013-06-28 19:29:00,86.3,-3.6,29.62,West,274,6.7,9.2,3,0.00,CLR,,0.00,WeatherDisplay:10.37,2013-06-28 23:29:00,
2013-06-28 19:30:00,86.5,-3.5,29.62,WSW,240,7.5,12.0,3,0.00,CLR,,0.00,WeatherDisplay:10.37,2013-06-28 23:30:00,
2013-06-28 19:31:00,87.5,-2.8,29.62,NNW,339,7.4,11.5,3,0.00,CLR,,0.00,WeatherDisplay:10.37,2013-06-28 23:31:00,
2013-06-28 19:32:00,86.9,-3.2,29.62,NNW,330,7.7,11.5,3,0.00,CLR,,0.00,WeatherDisplay:10.37,2013-06-28 23:32:00,
2013-06-28 19:34:00,86.9,-3.2,29.62,WSW,239,6.4,11.5,3,0.00,CLR,,0.00,WeatherDisplay:10.37,2013-06-28 23:34:00,
2013-06-28 19:35:00,87.2,-3.0,29.62,North,360,6.1,10.4,3,0.00,CLR,,0.00,WeatherDisplay:10.37,2013-06-28 23:35:00,
2013-06-28 19:36:00,87.6,-2.8,29.62,WNW,284,6.1,11.5,3,0.00,CLR,,0.00,WeatherDisplay:10.37,2013-06-28 23:36:00,
2013-06-28 19:37:00,87.2,-3.0,29.62,SW,229,5.1,9.0,3,0.00,CLR,,0.00,WeatherDisplay:10.37,2013-06-28 23:37:00,
2013-06-28 19:39:00,87.3,-3.0,29.62,SW,226,4.4,8.1,3,0.00,CLR,,0.00,WeatherDisplay:10.37,2013-06-28 23:39:00,
2013-06-28 19:40:00,86.9,-3.2,29.62,WNW,291,3.3,8.1,3,0.00,CLR,,0.00,WeatherDisplay:10.37,2013-06-28 23:40:00,
2013-06-28 19:41:00,88.3,-2.3,29.62,NW,308,3.6,5.8,3,0.00,CLR,,0.00,WeatherDisplay:10.37,2013-06-28 23:41:00,
2013-06-28 19:42:00,88.7,-2.0,29.62,NNW,340,4.9,8.1,3,0.00,CLR,,0.00,WeatherDisplay:10.37,2013-06-28 23:42:00,
2013-06-28 19:43:00,88.4,-2.2,29.62,NW,304,5.3,8.1,3,0.00,CLR,,0.00,WeatherDisplay:10.37,2013-06-28 23:43:00,
2013-06-28 19:44:00,87.8,-2.6,29.63,West,260,8.4,9.2,3,0.00,CLR,,0.00,WeatherDisplay:10.37,2013-06-28 23:44:00,
2013-06-28 19:45:00,87.6,-2.8,29.63,WSW,243,7.3,11.5,3,0.00,CLR,,0.00,WeatherDisplay:10.37,2013-06-28 23:45:00,
2013-06-28 19:46:00,87.1,3.0,29.63,SW,217,3.5,10.4,4,0.00,CLR,,0.00,WeatherDisplay:10.37,2013-06-28 23:46:00,
2013-06-28 19:48:00,86.8,-11.6,29.63,SSW,213,6.7,9.6,2,0.00,CLR,,0.00,WeatherDisplay:10.37,2013-06-28 23:48:00,
2013-06-28 19:49:00,87.6,-2.8,29.63,NNW,329,5.0,9.2,3,0.00,CLR,,0.00,WeatherDisplay:10.37,2013-06-28 23:49:00,
2013-06-28 19:50:00,87.1,-3.1,29.63,West,275,6.0,9.2,3,0.00,CLR,,0.00,WeatherDisplay:10.37,2013-06-28 23:50:00,
2013-06-28 19:51:00,87.3,-3.0,29.63,West,274,6.6,12.7,3,0.00,CLR,,0.00,WeatherDisplay:10.37,2013-06-28 23:51:00,
2013-06-28 19:52:00,86.1,-3.8,29.63,WNW,287,6.6,10.4,3,0.00,CLR,,0.00,WeatherDisplay:10.37,2013-06-28 23:52:00,
2013-06-28 19:53:00,86.6,-11.8,29.63,West,278,5.7,9.6,2,0.00,CLR,,0.00,WeatherDisplay:10.37,2013-06-28 23:53:00,
2013-06-28 19:54:00,86.9,-11.6,29.63,WNW,287,2.9,9.2,2,0.00,CLR,,0.00,WeatherDisplay:10.37,2013-06-28 23:54:00,
2013-06-28 19:55:00,87.3,-11.3,29.63,WNW,287,0.8,9.2,2,0.00,CLR,,0.00,WeatherDisplay:10.37,2013-06-28 23:55:00,
2013-06-28 19:56:00,87.0,-11.5,29.63,West,281,5.5,8.5,2,0.00,CLR,,0.00,WeatherDisplay:10.37,2013-06-28 23:56:00,
2013-06-28 19:57:00,87.4,-11.2,29.63,WNW,292,5.7,6.9,2,0.00,CLR,,0.00,WeatherDisplay:10.37,2013-06-28 23:57:00,
2013-06-28 19:58:00,86.3,-11.9,29.63,WNW,292,6.7,9.2,2,0.00,CLR,,0.00,WeatherDisplay:10.37,2013-06-28 23:58:00,
2013-06-28 19:59:00,86.0,-12.1,29.63,WNW,289,5.7,9.2,2,0.00,CLR,,0.00,WeatherDisplay:10.37,2013-06-28 23:59:00,
2013-06-28 20:01:00,86.4,-11.9,29.63,West,275,5.0,8.1,2,0.00,CLR,,0.00,WeatherDisplay:10.37,2013-06-29 00:01:00,
2013-06-28 20:02:00,85.3,-12.6,29.63,NW,320,5.1,10.4,2,0.00,CLR,,0.00,WeatherDisplay:10.37,2013-06-29 00:02:00,
2013-06-28 20:03:00,86.5,-11.8,29.63,NNW,343,6.8,10.5,2,0.00,CLR,,0.00,WeatherDisplay:10.37,2013-06-29 00:03:00,
2013-06-28 20:05:00,84.3,-13.2,29.62,NW,322,6.7,10.4,2,0.00,CLR,,0.00,WeatherDisplay:10.37,2013-06-29 00:05:00,
2013-06-28 20:06:00,84.1,-13.4,29.62,NNW,337,4.1,12.7,2,0.00,CLR,,0.00,WeatherDisplay:10.37,2013-06-29 00:06:00,
2013-06-28 20:07:00,84.6,-13.0,29.62,NW,322,3.1,8.1,2,0.00,CLR,,0.00,WeatherDisplay:10.37,2013-06-29 00:07:00,
2013-06-28 20:08:00,83.8,-13.6,29.62,NW,318,5.8,8.1,2,0.00,CLR,,0.00,WeatherDisplay:10.37,2013-06-29 00:08:00,
2013-06-28 20:10:00,84.3,-13.2,29.62,WSW,251,0.0,3.5,2,0.00,CLR,,0.00,WeatherDisplay:10.37,2013-06-29 00:10:00,
2013-06-28 20:11:00,84.0,-13.4,29.62,WNW,298,2.8,5.8,2,0.00,CLR,,0.00,WeatherDisplay:10.37,2013-06-29 00:11:00,
2013-06-28 20:12:00,85.1,-12.7,29.62,NNW,346,4.7,5.8,2,0.00,CLR,,0.00,WeatherDisplay:10.37,2013-06-29 00:12:00,
2013-06-28 20:14:00,84.6,-13.0,29.62,NW,304,4.2,6.9,2,0.00,CLR,,0.00,WeatherDisplay:10.37,2013-06-29 00:14:00,
2013-06-28 20:15:00,83.6,-13.7,29.62,WNW,292,1.0,6.9,2,0.00,CLR,,0.00,WeatherDisplay:10.37,2013-06-29 00:15:00,
2013-06-28 20:16:00,83.4,-13.8,29.62,NW,308,2.7,5.8,2,0.00,CLR,,0.00,WeatherDisplay:10.37,2013-06-29 00:16:00,
2013-06-28 20:17:00,83.9,-13.5,29.62,NW,304,4.0,5.8,2,0.00,CLR,,0.00,WeatherDisplay:10.37,2013-06-29 00:17:00,
2013-06-28 20:18:00,82.9,-14.1,29.62,NW,308,2.1,6.9,2,0.00,CLR,,0.00,WeatherDisplay:10.37,2013-06-29 00:18:00,
2013-06-28 20:19:00,82.8,-14.2,29.62,NNW,333,0.7,0.0,2,0.00,CLR,,0.00,WeatherDisplay:10.37,2013-06-29 00:19:00,
2013-06-28 20:20:00,84.2,-13.3,29.62,NW,311,0.9,3.5,2,0.00,CLR,,0.00,WeatherDisplay:10.37,2013-06-29 00:20:00,
2013-06-28 20:21:00,82.6,-14.3,29.62,NW,315,2.6,5.7,2,0.00,CLR,,0.00,WeatherDisplay:10.37,2013-06-29 00:21:00,
2013-06-28 20:22:00,82.9,-5.9,29.62,NW,319,4.7,8.1,3,0.00,CLR,,0.00,WeatherDisplay:10.37,2013-06-29 00:22:00,
2013-06-28 20:23:00,82.3,-6.3,29.62,WNW,294,3.5,8.1,3,0.00,CLR,,0.00,WeatherDisplay:10.37,2013-06-29 00:23:00,
2013-06-28 20:24:00,81.5,-6.8,29.62,WNW,292,1.3,5.0,3,0.00,CLR,,0.00,WeatherDisplay:10.37,2013-06-29 00:24:00,
2013-06-28 20:25:00,81.7,-6.7,29.62,WNW,296,4.5,6.9,3,0.00,CLR,,0.00,WeatherDisplay:10.37,2013-06-29 00:25:00,
2013-06-28 20:26:00,82.2,-6.4,29.62,WNW,299,4.7,9.2,3,0.00,CLR,,0.00,WeatherDisplay:10.37,2013-06-29 00:26:00,
2013-06-28 20:27:00,81.9,-6.6,29.62,WNW,299,0.9,6.9,3,0.00,CLR,,0.00,WeatherDisplay:10.37,2013-06-29 00:27:00,
2013-06-28 20:28:00,81.3,-7.0,29.62,NW,313,0.3,3.5,3,0.00,CLR,,0.00,WeatherDisplay:10.37,2013-06-29 00:28:00,
2013-06-28 20:29:00,80.9,-7.2,29.62,WNW,294,0.0,3.5,3,0.00,CLR,,0.00,WeatherDisplay:10.37,2013-06-29 00:29:00,
2013-06-28 20:30:00,81.0,-7.2,29.62,NNW,333,1.2,3.4,3,0.00,CLR,,0.00,WeatherDisplay:10.37,2013-06-29 00:30:00,
2013-06-28 20:32:00,80.5,-7.5,29.62,WNW,291,4.0,5.8,3,0.00,CLR,,0.00,WeatherDisplay:10.37,2013-06-29 00:32:00,
2013-06-28 20:33:00,80.2,-7.7,29.62,West,272,2.4,4.6,3,0.00,CLR,,0.00,WeatherDisplay:10.37,2013-06-29 00:33:00,
2013-06-28 20:35:00,79.7,-8.0,29.62,WNW,282,2.0,2.1,3,0.00,CLR,,0.00,WeatherDisplay:10.37,2013-06-29 00:35:00,
2013-06-28 20:36:00,79.8,-8.0,29.62,NW,322,0.7,4.6,3,0.00,CLR,,0.00,WeatherDisplay:10.37,2013-06-29 00:36:00,
2013-06-28 20:37:00,79.2,-8.4,29.62,NW,322,0.0,0.0,3,0.00,CLR,,0.00,WeatherDisplay:10.37,2013-06-29 00:37:00,
2013-06-28 20:38:00,80.2,-7.7,29.62,NW,322,0.0,0.0,3,0.00,CLR,,0.00,WeatherDisplay:10.37,2013-06-29 00:38:00,
2013-06-28 20:40:00,78.8,-8.6,29.62,NW,306,0.6,3.5,3,0.00,CLR,,0.00,WeatherDisplay:10.37,2013-06-29 00:40:00,
2013-06-28 20:41:00,80.1,-7.8,29.62,NW,325,2.0,6.1,3,0.00,CLR,,0.00,WeatherDisplay:10.37,2013-06-29 00:41:00,
2013-06-28 20:42:00,79.8,-8.0,29.62,WSW,241,1.4,6.9,3,0.00,CLR,,0.00,WeatherDisplay:10.37,2013-06-29 00:42:00,
2013-06-28 20:43:00,79.1,-2.5,29.63,WNW,295,1.9,4.6,4,0.00,CLR,,0.00,WeatherDisplay:10.37,2013-06-29 00:43:00,
2013-06-28 20:45:00,79.4,-8.2,29.63,NW,305,5.1,6.9,3,0.00,CLR,,0.00,WeatherDisplay:10.37,2013-06-29 00:45:00,
2013-06-28 20:46:00,78.2,-9.1,29.63,NW,305,2.3,10.4,3,0.00,CLR,,0.00,WeatherDisplay:10.37,2013-06-29 00:46:00,
2013-06-28 20:47:00,78.3,-9.0,29.63,West,267,2.6,5.2,3,0.00,CLR,,0.00,WeatherDisplay:10.37,2013-06-29 00:47:00,
2013-06-28 20:48:00,78.7,-8.7,29.63,WNW,301,3.6,6.9,3,0.00,CLR,,0.00,WeatherDisplay:10.37,2013-06-29 00:48:00,
2013-06-28 20:51:00,79.2,-2.4,29.63,NW,308,1.0,4.6,4,0.00,CLR,,0.00,WeatherDisplay:10.37,2013-06-29 00:51:00,
2013-06-28 20:52:00,78.3,-3.0,29.63,WNW,288,3.6,5.8,4,0.00,CLR,,0.00,WeatherDisplay:10.37,2013-06-29 00:52:00,
2013-06-28 20:53:00,78.5,-8.9,29.63,NW,306,3.9,5.0,3,0.00,CLR,,0.00,WeatherDisplay:10.37,2013-06-29 00:53:00,
2013-06-28 20:54:00,78.8,-8.6,29.63,West,272,4.4,4.6,3,0.00,CLR,,0.00,WeatherDisplay:10.37,2013-06-29 00:54:00,
2013-06-28 20:56:00,79.4,-2.3,29.63,NW,323,0.3,5.8,4,0.00,CLR,,0.00,WeatherDisplay:10.37,2013-06-29 00:56:00,
2013-06-28 20:57:00,78.7,-2.8,29.63,West,261,3.2,4.6,4,0.00,CLR,,0.00,WeatherDisplay:10.37,2013-06-29 00:57:00,
2013-06-28 20:58:00,78.3,-3.0,29.63,West,261,3.0,4.6,4,0.00,CLR,,0.00,WeatherDisplay:10.37,2013-06-29 00:58:00,
2013-06-28 20:59:00,78.5,-2.9,29.63,NW,309,1.8,6.9,4,0.00,CLR,,0.00,WeatherDisplay:10.37,2013-06-29 00:59:00,
2013-06-28 21:01:00,78.9,-2.6,29.63,West,261,0.1,5.8,4,0.00,CLR,,0.00,WeatherDisplay:10.37,2013-06-29 01:01:00,
2013-06-28 21:02:00,77.7,-3.4,29.63,West,261,0.0,0.0,4,0.00,CLR,,0.00,WeatherDisplay:10.37,2013-06-29 01:02:00,
2013-06-28 21:03:00,77.7,-3.4,29.63,West,261,0.0,0.0,4,0.00,CLR,,0.00,WeatherDisplay:10.37,2013-06-29 01:03:00,
2013-06-28 21:04:00,78.2,-3.1,29.63,WNW,289,1.1,6.3,4,0.00,CLR,,0.00,WeatherDisplay:10.37,2013-06-29 01:04:00,
2013-06-28 21:06:00,79.0,-2.5,29.63,NW,319,0.0,4.6,4,0.00,CLR,,0.00,WeatherDisplay:10.37,2013-06-29 01:06:00,
2013-06-28 21:08:00,78.9,-2.6,29.63,NW,319,0.0,0.0,4,0.00,CLR,,0.00,WeatherDisplay:10.37,2013-06-29 01:08:00,
2013-06-28 21:09:00,78.3,-3.0,29.63,NW,319,0.0,0.0,4,0.00,CLR,,0.00,WeatherDisplay:10.37,2013-06-29 01:09:00,
2013-06-28 21:11:00,78.4,-3.0,29.63,NW,319,0.0,0.0,4,0.00,CLR,,0.00,WeatherDisplay:10.37,2013-06-29 01:11:00,
2013-06-28 21:13:00,78.2,-3.1,29.63,West,277,0.9,3.5,4,0.00,CLR,,0.00,WeatherDisplay:10.37,2013-06-29 01:13:00,
2013-06-28 21:14:00,78.7,-2.8,29.63,West,277,0.0,0.0,4,0.00,CLR,,0.00,WeatherDisplay:10.37,2013-06-29 01:14:00,
2013-06-28 21:16:00,78.3,-3.0,29.63,West,277,0.0,0.0,4,0.00,CLR,,0.00,WeatherDisplay:10.37,2013-06-29 01:16:00,
2013-06-28 21:18:00,77.4,-3.7,29.63,West,277,0.0,0.0,4,0.00,CLR,,0.00,WeatherDisplay:10.37,2013-06-29 01:18:00,
2013-06-28 21:19:00,78.4,-3.0,29.63,West,277,0.0,0.0,4,0.00,CLR,,0.00,WeatherDisplay:10.37,2013-06-29 01:19:00,
2013-06-28 21:21:00,78.0,-3.2,29.63,West,277,0.0,0.0,4,0.00,CLR,,0.00,WeatherDisplay:10.37,2013-06-29 01:21:00,
2013-06-28 21:23:00,77.9,1.4,29.63,West,277,0.0,0.0,5,0.00,CLR,,0.00,WeatherDisplay:10.37,2013-06-29 01:23:00,
2013-06-28 21:24:00,77.4,1.1,29.63,West,277,0.0,0.0,5,0.00,CLR,,0.00,WeatherDisplay:10.37,2013-06-29 01:24:00,
2013-06-28 21:27:00,77.7,1.3,29.63,West,277,0.0,0.0,5,0.00,CLR,,0.00,WeatherDisplay:10.37,2013-06-29 01:27:00,
2013-06-28 21:29:00,77.0,0.8,29.64,West,277,0.0,0.0,5,0.00,CLR,,0.00,WeatherDisplay:10.37,2013-06-29 01:29:00,
2013-06-28 21:30:00,76.8,0.7,29.63,West,277,0.0,0.0,5,0.00,CLR,,0.00,WeatherDisplay:10.37,2013-06-29 01:30:00,
2013-06-28 21:32:00,77.3,1.0,29.64,West,277,0.0,0.0,5,0.00,CLR,,0.00,WeatherDisplay:10.37,2013-06-29 01:32:00,
2013-06-28 21:34:00,76.7,0.6,29.63,West,277,0.0,0.0,5,0.00,CLR,,0.00,WeatherDisplay:10.37,2013-06-29 01:34:00,
2013-06-28 21:35:00,76.7,0.6,29.63,West,277,0.5,3.5,5,0.00,CLR,,0.00,WeatherDisplay:10.37,2013-06-29 01:35:00,
2013-06-28 21:37:00,76.9,0.7,29.63,NW,305,1.0,5.8,5,0.00,CLR,,0.00,WeatherDisplay:10.37,2013-06-29 01:37:00,
2013-06-28 21:39:00,76.5,0.4,29.63,NNW,328,1.4,4.6,5,0.00,CLR,,0.00,WeatherDisplay:10.37,2013-06-29 01:39:00,
2013-06-28 21:40:00,76.3,0.3,29.63,NNW,328,0.4,4.6,5,0.00,CLR,,0.00,WeatherDisplay:10.37,2013-06-29 01:40:00,
2013-06-28 21:42:00,76.6,0.5,29.63,NNW,328,0.0,0.0,5,0.00,CLR,,0.00,WeatherDisplay:10.37,2013-06-29 01:42:00,
2013-06-28 21:44:00,76.4,0.4,29.63,NNW,328,0.0,0.0,5,0.00,CLR,,0.00,WeatherDisplay:10.37,2013-06-29 01:44:00,
2013-06-28 21:45:00,76.3,0.3,29.63,NNW,328,0.0,0.0,5,0.00,CLR,,0.00,WeatherDisplay:10.37,2013-06-29 01:45:00,
2013-06-28 21:47:00,76.6,4.5,29.63,NW,318,0.5,4.6,6,0.00,CLR,,0.00,WeatherDisplay:10.37,2013-06-29 01:47:00,
2013-06-28 21:49:00,76.4,4.3,29.63,West,278,2.5,6.9,6,0.00,CLR,,0.00,WeatherDisplay:10.37,2013-06-29 01:49:00,
2013-06-28 21:50:00,76.2,4.2,29.63,West,278,1.0,6.9,6,0.00,CLR,,0.00,WeatherDisplay:10.37,2013-06-29 01:50:00,
2013-06-28 21:51:00,76.3,4.2,29.63,NNW,344,2.0,5.8,6,0.00,CLR,,0.00,WeatherDisplay:10.37,2013-06-29 01:51:00,
2013-06-28 21:52:00,76.3,4.2,29.63,NNW,335,3.6,5.8,6,0.00,CLR,,0.00,WeatherDisplay:10.37,2013-06-29 01:52:00,
2013-06-28 21:54:00,76.2,4.2,29.63,NW,326,2.2,4.6,6,0.00,CLR,,0.00,WeatherDisplay:10.37,2013-06-29 01:54:00,
2013-06-28 21:55:00,76.5,4.4,29.63,NW,312,1.9,6.8,6,0.00,CLR,,0.00,WeatherDisplay:10.37,2013-06-29 01:55:00,
2013-06-28 21:56:00,76.4,4.3,29.63,North,360,4.1,8.1,6,0.00,CLR,,0.00,WeatherDisplay:10.37,2013-06-29 01:56:00,
2013-06-28 21:57:00,76.4,4.3,29.63,NNW,339,4.5,6.9,6,0.00,CLR,,0.00,WeatherDisplay:10.37,2013-06-29 01:57:00,
2013-06-28 21:59:00,76.4,4.3,29.63,North,8,3.3,6.9,6,0.00,CLR,,0.00,WeatherDisplay:10.37,2013-06-29 01:59:00,
2013-06-28 22:00:00,76.4,4.3,29.63,NNW,344,3.3,5.8,6,0.00,CLR,,0.00,WeatherDisplay:10.37,2013-06-29 02:00:00,
2013-06-28 22:01:00,76.3,4.2,29.63,NNW,344,0.8,4.6,6,0.00,CLR,,0.00,WeatherDisplay:10.37,2013-06-29 02:01:00,
2013-06-28 22:02:00,75.9,3.9,29.64,West,265,3.5,6.9,6,0.00,CLR,,0.00,WeatherDisplay:10.37,2013-06-29 02:02:00,
2013-06-28 22:04:00,76.5,4.4,29.64,NNW,337,2.8,5.8,6,0.00,CLR,,0.00,WeatherDisplay:10.37,2013-06-29 02:04:00,
2013-06-28 22:05:00,76.5,4.4,29.64,NNW,337,0.0,5.8,6,0.00,CLR,,0.00,WeatherDisplay:10.37,2013-06-29 02:05:00,
2013-06-28 22:06:00,76.4,4.3,29.64,NNW,337,0.0,0.0,6,0.00,CLR,,0.00,WeatherDisplay:10.37,2013-06-29 02:06:00,
2013-06-28 22:07:00,76.2,4.2,29.64,West,260,0.0,0.0,6,0.00,CLR,,0.00,WeatherDisplay:10.37,2013-06-29 02:07:00,
2013-06-28 22:09:00,76.4,7.7,29.64,NW,313,1.6,7.8,7,0.00,CLR,,0.00,WeatherDisplay:10.37,2013-06-29 02:09:00,
2013-06-28 22:10:00,76.2,7.5,29.64,North,352,4.5,5.8,7,0.00,CLR,,0.00,WeatherDisplay:10.37,2013-06-29 02:10:00,
2013-06-28 22:11:00,76.4,7.7,29.64,North,352,1.5,8.1,7,0.00,CLR,,0.00,WeatherDisplay:10.37,2013-06-29 02:11:00,
2013-06-28 22:12:00,76.4,7.7,29.64,North,352,0.0,0.0,7,0.00,CLR,,0.00,WeatherDisplay:10.37,2013-06-29 02:12:00,
2013-06-28 22:13:00,76.4,7.7,29.64,North,352,0.0,0.0,7,0.00,CLR,,0.00,WeatherDisplay:10.37,2013-06-29 02:13:00,
2013-06-28 22:14:00,76.3,7.6,29.64,North,360,1.4,4.6,7,0.00,CLR,,0.00,WeatherDisplay:10.37,2013-06-29 02:14:00,
2013-06-28 22:16:00,76.3,7.6,29.64,WNW,288,2.7,5.8,7,0.00,CLR,,0.00,WeatherDisplay:10.37,2013-06-29 02:16:00,
2013-06-28 22:17:00,76.2,7.5,29.64,WNW,288,0.0,4.6,7,0.00,CLR,,0.00,WeatherDisplay:10.37,2013-06-29 02:17:00,
2013-06-28 22:18:00,76.2,7.5,29.64,WNW,288,0.0,0.0,7,0.00,CLR,,0.00,WeatherDisplay:10.37,2013-06-29 02:18:00,
2013-06-28 22:20:00,76.3,7.6,29.64,WNW,288,0.0,0.0,7,0.00,CLR,,0.00,WeatherDisplay:10.37,2013-06-29 02:20:00,
2013-06-28 22:21:00,76.3,7.6,29.64,WNW,288,0.0,0.0,7,0.00,CLR,,0.00,WeatherDisplay:10.37,2013-06-29 02:21:00,
2013-06-28 22:22:00,76.4,7.7,29.65,WNW,288,0.2,0.0,7,0.00,CLR,,0.00,WeatherDisplay:10.37,2013-06-29 02:22:00,
2013-06-28 22:23:00,76.3,7.6,29.65,WNW,288,0.0,2.3,7,0.00,CLR,,0.00,WeatherDisplay:10.37,2013-06-29 02:23:00,
2013-06-28 22:25:00,76.6,7.8,29.65,WNW,288,0.0,0.0,7,0.00,CLR,,0.00,WeatherDisplay:10.37,2013-06-29 02:25:00,
2013-06-28 22:26:00,76.7,7.9,29.65,WNW,288,0.0,0.0,7,0.00,CLR,,0.00,WeatherDisplay:10.37,2013-06-29 02:26:00,
2013-06-28 22:27:00,76.9,8.1,29.65,WNW,288,0.0,0.0,7,0.00,CLR,,0.00,WeatherDisplay:10.37,2013-06-29 02:27:00,
2013-06-28 22:28:00,76.4,7.7,29.65,WNW,288,0.0,0.0,7,0.00,CLR,,0.00,WeatherDisplay:10.37,2013-06-29 02:28:00,
2013-06-28 22:30:00,76.8,8.0,29.65,WNW,288,0.0,0.0,7,0.00,CLR,,0.00,WeatherDisplay:10.37,2013-06-29 02:30:00,
2013-06-28 22:31:00,76.9,8.1,29.65,WNW,288,0.0,0.0,7,0.00,CLR,,0.00,WeatherDisplay:10.37,2013-06-29 02:31:00,
2013-06-28 22:32:00,77.1,8.2,29.65,WNW,288,0.0,0.0,7,0.00,CLR,,0.00,WeatherDisplay:10.37,2013-06-29 02:32:00,
2013-06-28 22:33:00,76.9,8.1,29.65,WNW,288,0.0,0.0,7,0.00,CLR,,0.00,WeatherDisplay:10.37,2013-06-29 02:33:00,
2013-06-28 22:36:00,77.8,8.7,29.65,WNW,288,0.0,0.0,7,0.00,CLR,,0.00,WeatherDisplay:10.37,2013-06-29 02:36:00,
2013-06-28 22:37:00,77.0,8.1,29.65,WNW,288,0.0,0.0,7,0.00,CLR,,0.00,WeatherDisplay:10.37,2013-06-29 02:37:00,
2013-06-28 22:38:00,76.8,8.0,29.65,WNW,288,0.0,0.0,7,0.00,CLR,,0.00,WeatherDisplay:10.37,2013-06-29 02:38:00,
2013-06-28 22:41:00,76.9,8.1,29.66,SE,127,0.0,0.0,7,0.00,CLR,,0.00,WeatherDisplay:10.37,2013-06-29 02:41:00,
2013-06-28 22:42:00,77.3,11.3,29.66,SE,127,0.0,0.0,8,0.00,CLR,,0.00,WeatherDisplay:10.37,2013-06-29 02:42:00,
2013-06-28 22:43:00,77.0,11.1,29.66,SE,127,0.0,0.0,8,0.00,CLR,,0.00,WeatherDisplay:10.37,2013-06-29 02:43:00,
2013-06-28 22:44:00,76.7,10.9,29.66,SE,127,0.0,0.0,8,0.00,CLR,,0.00,WeatherDisplay:10.37,2013-06-29 02:44:00,
2013-06-28 22:46:00,76.8,11.0,29.66,SE,127,0.0,0.0,8,0.00,CLR,,0.00,WeatherDisplay:10.37,2013-06-29 02:46:00,
2013-06-28 22:47:00,76.9,11.0,29.66,SE,127,0.0,0.0,8,0.00,CLR,,0.00,WeatherDisplay:10.37,2013-06-29 02:47:00,
2013-06-28 22:48:00,77.2,13.9,29.66,SE,127,0.0,0.0,9,0.00,CLR,,0.00,WeatherDisplay:10.37,2013-06-29 02:48:00,
2013-06-28 22:49:00,76.6,18.1,29.66,SE,127,0.0,0.0,11,0.00,CLR,,0.00,WeatherDisplay:10.37,2013-06-29 02:49:00,
2013-06-28 22:51:00,76.6,15.9,29.66,SE,127,0.0,0.0,10,0.00,CLR,,0.00,WeatherDisplay:10.37,2013-06-29 02:51:00,
2013-06-28 22:53:00,76.3,13.3,29.66,SE,127,0.0,0.0,9,0.00,CLR,,0.00,WeatherDisplay:10.37,2013-06-29 02:53:00,
2013-06-28 22:54:00,76.3,15.7,29.66,SE,127,0.0,0.0,10,0.00,CLR,,0.00,WeatherDisplay:10.37,2013-06-29 02:54:00,
2013-06-28 22:56:00,76.3,13.3,29.66,SE,127,0.0,0.0,9,0.00,CLR,,0.00,WeatherDisplay:10.37,2013-06-29 02:56:00,
2013-06-28 22:58:00,76.4,21.9,29.67,SE,127,0.0,0.0,13,0.00,CLR,,0.00,WeatherDisplay:10.37,2013-06-29 02:58:00,
2013-06-28 22:59:00,76.1,19.8,29.67,SE,127,0.0,0.0,12,0.00,CLR,,0.00,WeatherDisplay:10.37,2013-06-29 02:59:00,
2013-06-28 23:01:00,76.2,23.5,29.67,SE,127,0.0,0.0,14,0.00,CLR,,0.00,WeatherDisplay:10.37,2013-06-29 03:01:00,
2013-06-28 23:03:00,75.7,23.1,29.67,SE,127,0.0,0.0,14,0.00,CLR,,0.00,WeatherDisplay:10.37,2013-06-29 03:03:00,
2013-06-28 23:04:00,75.9,23.2,29.67,SE,127,0.0,0.0,14,0.00,CLR,,0.00,WeatherDisplay:10.37,2013-06-29 03:04:00,
2013-06-28 23:05:00,76.2,23.5,29.67,SE,127,0.0,0.0,14,0.00,CLR,,0.00,WeatherDisplay:10.37,2013-06-29 03:05:00,
2013-06-28 23:06:00,75.6,24.7,29.67,SE,127,0.0,0.0,15,0.00,CLR,,0.00,WeatherDisplay:10.37,2013-06-29 03:06:00,
2013-06-28 23:08:00,75.5,21.2,29.67,SE,127,0.0,0.0,13,0.00,CLR,,0.00,WeatherDisplay:10.37,2013-06-29 03:08:00,
2013-06-28 23:09:00,75.7,21.3,29.67,SE,127,0.0,0.0,13,0.00,CLR,,0.00,WeatherDisplay:10.37,2013-06-29 03:09:00,
2013-06-28 23:10:00,75.6,23.0,29.67,SE,127,0.0,0.0,14,0.00,CLR,,0.00,WeatherDisplay:10.37,2013-06-29 03:10:00,
2013-06-28 23:11:00,75.6,24.7,29.67,SE,127,0.0,0.0,15,0.00,CLR,,0.00,WeatherDisplay:10.37,2013-06-29 03:11:00,
2013-06-28 23:13:00,76.0,21.6,29.67,SE,127,0.0,0.0,13,0.00,CLR,,0.00,WeatherDisplay:10.37,2013-06-29 03:13:00,
2013-06-28 23:14:00,76.0,21.6,29.67,SE,127,0.0,0.0,13,0.00,CLR,,0.00,WeatherDisplay:10.37,2013-06-29 03:14:00,
2013-06-28 23:15:00,75.8,19.5,29.67,SE,127,0.0,0.0,12,0.00,CLR,,0.00,WeatherDisplay:10.37,2013-06-29 03:15:00,
2013-06-28 23:16:00,75.7,23.1,29.67,SE,127,0.0,0.0,14,0.00,CLR,,0.00,WeatherDisplay:10.37,2013-06-29 03:16:00,
2013-06-28 23:18:00,75.7,23.1,29.67,SE,127,0.0,0.0,14,0.00,CLR,,0.00,WeatherDisplay:10.37,2013-06-29 03:18:00,
2013-06-28 23:19:00,75.7,23.1,29.67,SE,127,0.0,0.0,14,0.00,CLR,,0.00,WeatherDisplay:10.37,2013-06-29 03:19:00,
2013-06-28 23:20:00,75.3,24.4,29.67,SE,127,0.0,0.0,15,0.00,CLR,,0.00,WeatherDisplay:10.37,2013-06-29 03:20:00,
2013-06-28 23:21:00,75.3,22.8,29.67,SE,127,0.0,0.0,14,0.00,CLR,,0.00,WeatherDisplay:10.37,2013-06-29 03:21:00,
2013-06-28 23:23:00,75.0,24.2,29.67,SE,127,0.0,0.0,15,0.00,CLR,,0.00,WeatherDisplay:10.37,2013-06-29 03:23:00,
2013-06-28 23:24:00,74.8,24.0,29.67,SE,127,0.0,0.0,15,0.00,CLR,,0.00,WeatherDisplay:10.37,2013-06-29 03:24:00,
2013-06-28 23:25:00,74.8,24.0,29.67,SE,127,0.0,0.0,15,0.00,CLR,,0.00,WeatherDisplay:10.37,2013-06-29 03:25:00,
2013-06-28 23:27:00,74.4,25.2,29.67,SE,127,0.0,0.0,16,0.00,CLR,,0.00,WeatherDisplay:10.37,2013-06-29 03:27:00,
2013-06-28 23:29:00,74.4,23.7,29.67,SE,127,0.0,0.0,15,0.00,CLR,,0.00,WeatherDisplay:10.37,2013-06-29 03:29:00,
2013-06-28 23:30:00,74.4,25.2,29.67,SE,127,0.0,0.0,16,0.00,CLR,,0.00,WeatherDisplay:10.37,2013-06-29 03:30:00,
2013-06-28 23:31:00,74.3,25.2,29.67,SE,127,0.0,0.0,16,0.00,CLR,,0.00,WeatherDisplay:10.37,2013-06-29 03:31:00,
2013-06-28 23:32:00,74.3,25.2,29.67,SE,127,0.0,0.0,16,0.00,CLR,,0.00,WeatherDisplay:10.37,2013-06-29 03:32:00,
2013-06-28 23:34:00,74.3,25.2,29.67,SE,127,0.0,0.0,16,0.00,CLR,,0.00,WeatherDisplay:10.37,2013-06-29 03:34:00,
2013-06-28 23:36:00,74.3,25.2,29.67,SE,127,0.0,0.0,16,0.00,CLR,,0.00,WeatherDisplay:10.37,2013-06-29 03:36:00,
2013-06-28 23:37:00,74.3,25.2,29.67,SE,127,0.0,0.0,16,0.00,CLR,,0.00,WeatherDisplay:10.37,2013-06-29 03:37:00,
2013-06-28 23:39:00,74.3,28.0,29.67,SE,127,0.0,0.0,18,0.00,CLR,,0.00,WeatherDisplay:10.37,2013-06-29 03:39:00,
2013-06-28 23:41:00,74.3,28.0,29.67,SE,127,0.0,0.0,18,0.00,CLR,,0.00,WeatherDisplay:10.37,2013-06-29 03:41:00,
2013-06-28 23:42:00,74.3,26.6,29.67,SE,127,0.0,0.0,17,0.00,CLR,,0.00,WeatherDisplay:10.37,2013-06-29 03:42:00,
2013-06-28 23:44:00,74.3,25.2,29.67,SE,127,0.0,0.0,16,0.00,CLR,,0.00,WeatherDisplay:10.37,2013-06-29 03:44:00,
2013-06-28 23:46:00,74.4,22.1,29.67,SE,127,0.0,0.0,14,0.00,CLR,,0.00,WeatherDisplay:10.37,2013-06-29 03:46:00,
2013-06-28 23:47:00,74.4,20.3,29.67,SE,127,0.0,0.0,13,0.00,CLR,,0.00,WeatherDisplay:10.37,2013-06-29 03:47:00,
2013-06-28 23:49:00,74.6,18.6,29.67,SE,127,0.0,0.0,12,0.00,CLR,,0.00,WeatherDisplay:10.37,2013-06-29 03:49:00,
2013-06-28 23:51:00,75.0,18.9,29.67,SE,127,0.0,0.0,12,0.00,CLR,,0.00,WeatherDisplay:10.37,2013-06-29 03:51:00,
2013-06-28 23:52:00,75.1,14.8,29.67,SE,127,0.0,0.0,10,0.00,CLR,,0.00,WeatherDisplay:10.37,2013-06-29 03:52:00,
2013-06-28 23:53:00,75.1,12.4,29.67,SE,127,0.0,0.0,9,0.00,CLR,,0.00,WeatherDisplay:10.37,2013-06-29 03:53:00,
2013-06-28 23:54:00,75.0,12.3,29.67,SE,127,0.0,0.0,9,0.00,CLR,,0.00,WeatherDisplay:10.37,2013-06-29 03:54:00,
2013-06-28 23:56:00,75.9,10.3,29.67,SE,127,0.0,0.0,8,0.00,CLR,,0.00,WeatherDisplay:10.37,2013-06-29 03:56:00,
2013-06-28 23:57:00,75.8,17.5,29.67,SE,127,0.0,0.0,11,0.00,CLR,,0.00,WeatherDisplay:10.37,2013-06-29 03:57:00,
2013-06-28 23:59:00,75.7,17.4,29.67,SE,127,0.0,0.0,11,0.00,CLR,,0.00,WeatherDisplay:10.37,2013-06-29 03:59:00,